FW6434 Weather Reports


time (UTC)temp
C
wind
direction
speed
KPH
gust
KPH
rain 1hr
cm
rain 24hr
cm
rain mn
cm
humidity
%
barometer
mb
20260509192204 11 149 0.0 1.6 0.00 0.00 0.00 84 1019.3
20260509192049 11 147 0.0 1.6 0.00 0.00 0.00 84 1019.1
20260509192006 11 159 0.0 3.2 0.00 0.00 0.00 84 1019.2
20260509191905 11 158 0.0 3.2 0.00 0.00 0.00 84 1019.4
20260509191843 11 153 0.0 3.2 0.00 0.00 0.00 83 1019.3
20260509191836 11 140 0.0 3.2 0.00 0.00 0.00 84 1019.1
20260509191822 11 155 0.0 3.2 0.00 0.00 0.00 83 1019.4
20260509191806 11 155 0.0 3.2 0.00 0.00 0.00 83 1019.3
20260509191505 11 151 0.0 3.2 0.00 0.00 0.00 83 1019.3
20260509191447 11 157 0.0 3.2 0.00 0.00 0.00 83 1019.3
20260509191430 11 138 0.0 3.2 0.00 0.00 0.00 83 1019.3
20260509191152 11 72 1.6 3.2 0.00 0.00 0.00 83 1019.2
20260509191139 11 78 1.6 3.2 0.00 0.00 0.00 83 1019.2
20260509191126 11 137 0.0 3.2 0.00 0.00 0.00 83 1019.4
20260509190805 11 147 0.0 3.2 0.00 0.00 0.00 82 1019.3
20260509190705 11 124 0.0 3.2 0.00 0.00 0.00 82 1019.4
20260509190606 11 90 1.6 3.2 0.00 0.00 0.00 82 1019.2
20260509190554 11 84 1.6 3.2 0.00 0.00 0.00 82 1019.2
20260509190543 11 108 1.6 4.8 0.00 0.00 0.00 83 1019.3
20260509190528 11 106 1.6 4.8 0.00 0.00 0.00 83 1019.4
20260509190205 11 122 0.0 6.4 0.00 0.00 0.00 83 1019.4
20260509190104 11 119 0.0 6.4 0.00 0.00 0.00 82 1019.4
20260509190006 11 102 0.0 6.4 0.00 0.00 0.00 82 1019.3
20260509185906 11 76 0.0 6.4 0.00 0.00 0.00 82 1019.2
20260509185806 11 59 1.6 6.4 0.00 0.00 0.00 82 1019.0
20260509185704 11 83 0.0 6.4 0.00 0.00 0.00 82 1019.4
20260509185606 11 68 1.6 6.4 0.00 0.00 0.00 83 1019.1
20260509185550 11 59 1.6 6.4 0.00 0.00 0.00 83 1019.1
20260509185541 11 54 3.2 4.8 0.00 0.00 0.00 83 1019.1
20260509185533 11 108 0.0 6.4 0.00 0.00 0.00 83 1019.2
20260509185517 11 68 4.8 6.4 0.00 0.00 0.00 82 1019.3
20260509185501 11 63 1.6 6.4 0.00 0.00 0.00 83 1019.3
20260509185445 11 117 0.0 4.8 0.00 0.00 0.00 83 1019.1
20260509185429 11 123 0.0 4.8 0.00 0.00 0.00 83 1019.2
20260509185417 11 130 0.0 4.8 0.00 0.00 0.00 83 1019.2
20260509185404 11 96 0.0 4.8 0.00 0.00 0.00 83 1019.4
20260509185348 11 85 0.0 4.8 0.00 0.00 0.00 83 1019.4
20260509185332 11 86 0.0 4.8 0.00 0.00 0.00 83 1019.4
20260509185057 11 86 1.6 4.8 0.00 0.00 0.00 83 1019.1
20260509184305 11 61 0.0 4.8 0.00 0.00 0.00 83 1019.3
20260509184209 11 69 0.0 4.8 0.00 0.00 0.00 83 1019.1
20260509184142 11 108 1.6 4.8 0.00 0.00 0.00 83 1019.1
20260509184129 11 105 0.0 4.8 0.00 0.00 0.00 83 1019.2
20260509183805 11 130 0.0 4.8 0.00 0.00 0.00 83 1019.1
20260509183705 11 128 0.0 4.8 0.00 0.00 0.00 83 1019.4
20260509183549 11 104 0.0 4.8 0.00 0.00 0.00 83 1019.2
20260509183507 11 87 0.0 4.8 0.00 0.00 0.00 83 1019.3
20260509183405 11 129 0.0 4.8 0.00 0.00 0.00 83 1019.2
20260509183306 11 97 0.0 4.8 0.00 0.00 0.00 83 1019.1
20260509183205 11 114 0.0 4.8 0.00 0.00 0.00 83 1019.1
20260509183105 11 100 1.6 4.8 0.00 0.00 0.00 83 1019.2
20260509183050 11 125 0.0 4.8 0.00 0.00 0.00 83 1019.2
20260509183006 11 134 0.0 4.8 0.00 0.00 0.00 83 1019.1
20260509182906 11 124 0.0 4.8 0.00 0.00 0.00 82 1019.2
20260509182806 11 75 0.0 4.8 0.00 0.00 0.00 82 1019.1
20260509182705 11 127 1.6 3.2 0.00 0.00 0.00 82 1019.0
20260509182605 11 121 0.0 3.2 0.00 0.00 0.00 82 1019.1
20260509182550 11 115 0.0 3.2 0.00 0.00 0.00 82 1019.1
20260509182505 11 49 3.2 3.2 0.00 0.00 0.00 82 1019.1
20260509182405 11 146 0.0 1.6 0.00 0.00 0.00 82 1019.2
20260509182307 11 145 0.0 1.6 0.00 0.00 0.00 82 1019.1
20260509182205 11 134 0.0 3.2 0.00 0.00 0.00 82 1018.9
20260509182053 11 147 0.0 3.2 0.00 0.00 0.00 82 1019.1
20260509182041 11 131 0.0 3.2 0.00 0.00 0.00 82 1018.8
20260509182025 11 133 0.0 3.2 0.00 0.00 0.00 82 1019.3
20260509181705 11 151 0.0 3.2 0.00 0.00 0.00 82 1019.1
20260509181605 11 134 0.0 3.2 0.00 0.00 0.00 82 1019.1
20260509181549 11 133 0.0 3.2 0.00 0.00 0.00 82 1019.1
20260509181506 11 151 0.0 3.2 0.00 0.00 0.00 82 1019.1
20260509181405 11 132 0.0 3.2 0.00 0.00 0.00 81 1018.9
20260509181341 11 120 0.0 3.2 0.00 0.00 0.00 81 1019.1
20260509181325 11 128 0.0 1.6 0.00 0.00 0.00 81 1019.1
20260509181050 11 129 0.0 1.6 0.00 0.00 0.00 81 1018.9
20260509181006 11 141 0.0 1.6 0.00 0.00 0.00 81 1019.1
20260509180904 11 129 0.0 1.6 0.00 0.00 0.00 81 1019.2
20260509180842 11 120 0.0 1.6 0.00 0.00 0.00 81 1019.0
20260509180826 11 149 0.0 1.6 0.00 0.00 0.00 81 1019.1
20260509180549 11 144 0.0 1.6 0.00 0.00 0.00 81 1019.0
20260509180541 11 90 0.0 4.8 0.00 0.00 0.00 80 1019.0
20260509180533 11 112 0.0 1.6 0.00 0.00 0.00 81 1019.0
20260509180517 11 136 0.0 1.6 0.00 0.00 0.00 81 1019.0
20260509180502 11 163 0.0 1.6 0.00 0.00 0.00 81 1018.8
20260509180212 11 146 0.0 1.6 0.00 0.00 0.00 80 1019.1
20260509180159 11 146 0.0 1.6 0.00 0.00 0.00 80 1019.1
20260509180143 11 144 0.0 1.6 0.00 0.00 0.00 80 1019.2
20260509180127 11 157 0.0 4.8 0.00 0.00 0.00 80 1019.1
20260509175851 11 67 1.6 4.8 0.00 0.00 0.00 80 1019.0
20260509175625 11 161 0.0 4.8 0.00 0.00 0.00 80 1019.1
20260509175345 11 158 0.0 4.8 0.00 0.00 0.00 80 1019.1
20260509175328 11 136 0.0 4.8 0.00 0.00 0.00 80 1019.1
20260509175049 12 142 0.0 4.8 0.00 0.00 0.00 80 1019.1
20260509175005 12 121 0.0 4.8 0.00 0.00 0.00 80 1019.2
20260509174906 11 48 4.8 4.8 0.00 0.00 0.00 79 1019.1
20260509174840 12 138 0.0 3.2 0.00 0.00 0.00 79 1019.1
20260509174832 11 154 0.0 3.2 0.00 0.00 0.00 79 1019.3
20260509174816 11 131 0.0 3.2 0.00 0.00 0.00 79 1019.1
20260509174759 12 138 0.0 3.2 0.00 0.00 0.00 79 1019.1
20260509174441 12 105 0.0 3.2 0.00 0.00 0.00 79 1019.1
20260509174341 12 131 0.0 3.2 0.00 0.00 0.00 80 1018.9
20260509174243 12 161 0.0 3.2 0.00 0.00 0.00 79 1019.0
20260509174229 12 164 0.0 1.6 0.00 0.00 0.00 79 1019.0
20260509174218 12 160 0.0 3.2 0.00 0.00 0.00 79 1019.2
20260509174153 12 145 0.0 3.2 0.00 0.00 0.00 79 1019.0
20260509174138 12 158 0.0 3.2 0.00 0.00 0.00 79 1019.0
20260509174122 12 99 1.6 3.2 0.00 0.00 0.00 79 1019.0
20260509174106 12 160 0.0 1.6 0.00 0.00 0.00 79 1019.1
20260509174051 12 164 0.0 1.6 0.00 0.00 0.00 79 1019.1
20260509173603 12 163 0.0 1.6 0.00 0.00 0.00 79 1018.9
20260509173241 12 120 0.0 1.6 0.00 0.00 0.00 79 1019.0
20260509173142 12 146 0.0 1.6 0.00 0.00 0.00 79 1019.0
20260509173043 12 168 0.0 1.6 0.00 0.00 0.00 79 1019.0
20260509172940 12 177 0.0 1.6 0.00 0.00 0.00 78 1019.0
20260509172916 12 168 0.0 0.0 0.00 0.00 0.00 79 1019.1
20260509172907 12 178 0.0 1.6 0.00 0.00 0.00 78 1019.1
20260509172851 12 175 0.0 1.6 0.00 0.00 0.00 78 1019.2
20260509172835 12 171 0.0 1.6 0.00 0.00 0.00 78 1019.1
20260509172602 12 154 0.0 1.6 0.00 0.00 0.00 78 1018.8
20260509172546 12 154 0.0 1.6 0.00 0.00 0.00 78 1019.2
20260509172530 12 135 0.0 1.6 0.00 0.00 0.00 78 1018.9
20260509172514 12 156 0.0 1.6 0.00 0.00 0.00 78 1019.2
20260509172458 12 142 0.0 1.6 0.00 0.00 0.00 77 1019.0
20260509172433 12 141 0.0 1.6 0.00 0.00 0.00 78 1019.2
20260509172155 12 166 0.0 0.0 0.00 0.00 0.00 78 1019.1
20260509172140 12 161 0.0 0.0 0.00 0.00 0.00 78 1019.2
20260509172124 12 172 0.0 0.0 0.00 0.00 0.00 78 1019.1
20260509171637 12 167 0.0 0.0 0.00 0.00 0.00 78 1018.9
20260509171621 12 167 0.0 0.0 0.00 0.00 0.00 78 1018.9
20260509171605 12 173 0.0 1.6 0.00 0.00 0.00 78 1019.2
20260509171116 12 174 0.0 1.6 0.00 0.00 0.00 78 1018.9
20260509171100 12 173 0.0 1.6 0.00 0.00 0.00 78 1018.9
20260509170820 12 144 0.0 1.6 0.00 0.00 0.00 78 1018.8
20260509170816 12 169 0.0 0.0 0.00 0.00 0.00 78 1018.8
20260509170812 12 178 0.0 0.0 0.00 0.00 0.00 77 1018.8
20260509170804 12 173 0.0 1.6 0.00 0.00 0.00 78 1018.8
20260509170748 12 168 0.0 1.6 0.00 0.00 0.00 78 1019.0
20260509170725 12 159 0.0 1.6 0.00 0.00 0.00 78 1019.0
20260509170709 12 158 0.0 1.6 0.00 0.00 0.00 77 1018.9
20260509170652 12 128 0.0 1.6 0.00 0.00 0.00 77 1018.9
20260509170636 12 162 0.0 1.6 0.00 0.00 0.00 78 1018.8
20260509170621 12 162 0.0 1.6 0.00 0.00 0.00 78 1018.9
20260509170602 12 144 0.0 1.6 0.00 0.00 0.00 78 1018.8
20260509170338 12 153 0.0 1.6 0.00 0.00 0.00 77 1019.1
20260509170323 12 108 0.0 1.6 0.00 0.00 0.00 77 1018.9
20260509170044 12 175 0.0 0.0 0.00 0.00 0.00 78 1018.8
20260509170027 12 169 0.0 0.0 0.00 0.00 0.00 78 1018.8
20260509165801 12 167 0.0 0.0 0.00 0.00 0.00 78 1018.9
20260509165524 12 169 0.0 0.0 0.00 0.00 0.00 78 1019.0
20260509165508 12 180 0.0 0.0 0.00 0.00 0.00 77 1019.1
20260509164718 12 178 0.0 1.6 0.00 0.00 0.00 78 1018.8
20260509164617 12 176 0.0 1.6 0.00 0.00 0.00 77 1019.1
20260509164549 12 182 0.0 1.6 0.00 0.00 0.00 77 1019.1
20260509164520 12 179 0.0 1.6 0.00 0.00 0.00 77 1018.9
20260509164417 12 162 0.0 3.2 0.00 0.00 0.00 77 1018.9
20260509164316 12 80 0.0 3.2 0.00 0.00 0.00 77 1018.8
20260509164218 12 80 0.0 3.2 0.00 0.00 0.00 77 1018.8
20260509164117 12 168 0.0 3.2 0.00 0.00 0.00 77 1018.7
20260509164049 12 160 0.0 3.2 0.00 0.00 0.00 77 1018.7
20260509164015 12 146 0.0 3.2 0.00 0.00 0.00 77 1019.0
20260509163917 12 139 0.0 3.2 0.00 0.00 0.00 77 1019.0
20260509163816 12 139 0.0 3.2 0.00 0.00 0.00 77 1018.8
20260509163716 12 93 0.0 3.2 0.00 0.00 0.00 77 1019.0
20260509163618 12 78 1.6 3.2 0.00 0.00 0.00 77 1018.7
20260509163604 12 165 0.0 3.2 0.00 0.00 0.00 76 1018.7
20260509163555 12 150 0.0 3.2 0.00 0.00 0.00 76 1019.1
20260509163538 12 177 0.0 1.6 0.00 0.00 0.00 76 1018.9
20260509163221 12 159 0.0 1.6 0.00 0.00 0.00 76 1018.9
20260509163204 12 154 0.0 1.6 0.00 0.00 0.00 76 1019.0
20260509163147 12 132 0.0 1.6 0.00 0.00 0.00 76 1019.0
20260509163138 12 55 1.6 1.6 0.00 0.00 0.00 76 1019.0
20260509162817 12 139 0.0 1.6 0.00 0.00 0.00 76 1018.8
20260509162802 12 176 0.0 0.0 0.00 0.00 0.00 76 1018.9
20260509162753 12 157 0.0 1.6 0.00 0.00 0.00 76 1018.8
20260509162737 12 119 0.0 1.6 0.00 0.00 0.00 76 1019.0
20260509162724 12 169 0.0 0.0 0.00 0.00 0.00 76 1019.0
20260509162715 12 161 0.0 0.0 0.00 0.00 0.00 76 1018.9
20260509162659 12 112 0.0 0.0 0.00 0.00 0.00 76 1018.8
20260509162643 12 132 0.0 0.0 0.00 0.00 0.00 76 1019.0
20260509162407 12 179 0.0 0.0 0.00 0.00 0.00 76 1018.9
20260509162137 12 166 0.0 0.0 0.00 0.00 0.00 75 1019.0
20260509161817 12 179 0.0 0.0 0.00 0.00 0.00 76 1018.8
20260509161717 12 161 0.0 0.0 0.00 0.00 0.00 76 1019.2
20260509161617 12 167 0.0 0.0 0.00 0.00 0.00 76 1019.1
20260509161548 12 156 0.0 0.0 0.00 0.00 0.00 76 1019.1
20260509161516 12 175 0.0 0.0 0.00 0.00 0.00 76 1019.1
20260509161417 12 172 0.0 0.0 0.00 0.00 0.00 76 1018.7
20260509161340 12 168 0.0 0.0 0.00 0.00 0.00 76 1018.9
20260509161323 12 177 0.0 0.0 0.00 0.00 0.00 76 1019.2
20260509161307 12 175 0.0 0.0 0.00 0.00 0.00 76 1019.0
20260509161252 12 175 0.0 0.0 0.00 0.00 0.00 77 1019.0
20260509161024 12 170 0.0 0.0 0.00 0.00 0.00 76 1019.1
20260509161009 12 162 0.0 0.0 0.00 0.00 0.00 76 1019.1
20260509160732 12 141 0.0 3.2 0.00 0.00 0.00 76 1019.0
20260509160720 12 141 0.0 3.2 0.00 0.00 0.00 77 1019.0
20260509160404 12 173 0.0 3.2 0.00 0.00 0.00 77 1019.2
20260509160306 12 170 0.0 3.2 0.00 0.00 0.00 77 1019.1
20260509160204 12 172 0.0 3.2 0.00 0.00 0.00 77 1019.1
20260509160114 12 152 0.0 3.2 0.00 0.00 0.00 78 1019.4
20260509160100 12 151 0.0 3.2 0.00 0.00 0.00 77 1019.4
20260509160005 12 167 0.0 3.2 0.00 0.00 0.00 78 1019.1
20260509155905 12 170 0.0 3.2 0.00 0.00 0.00 78 1018.9
20260509155804 12 168 0.0 3.2 0.00 0.00 0.00 77 1018.9
20260509155748 12 117 0.0 3.2 0.00 0.00 0.00 77 1019.0
20260509155720 12 162 0.0 1.6 0.00 0.00 0.00 77 1019.0
20260509155441 12 119 0.0 0.0 0.00 0.00 0.00 77 1018.9
20260509155432 12 124 0.0 0.0 0.00 0.00 0.00 77 1019.1
20260509155416 12 124 0.0 0.0 0.00 0.00 0.00 77 1019.0
20260509155359 12 144 0.0 0.0 0.00 0.00 0.00 77 1019.1
20260509155342 12 119 0.0 0.0 0.00 0.00 0.00 77 1018.9
20260509155111 12 119 0.0 0.0 0.00 0.00 0.00 77 1019.1
20260509155054 12 181 0.0 0.0 0.00 0.00 0.00 77 1019.1
20260509155037 12 182 0.0 0.0 0.00 0.00 0.00 77 1019.0
20260509154551 12 182 0.0 0.0 0.00 0.00 0.00 77 1019.2
20260509154452 12 182 0.0 0.0 0.00 0.00 0.00 77 1019.1
20260509154351 12 182 0.0 0.0 0.00 0.00 0.00 77 1019.0
20260509154251 12 182 0.0 0.0 0.00 0.00 0.00 77 1019.0
20260509154153 12 181 0.0 0.0 0.00 0.00 0.00 77 1018.9
20260509154129 12 181 0.0 0.0 0.00 0.00 0.00 77 1019.0
20260509154112 12 182 0.0 0.0 0.00 0.00 0.00 77 1019.1
20260509153835 12 182 0.0 0.0 0.00 0.00 0.00 77 1019.1
20260509153818 12 185 0.0 0.0 0.00 0.00 0.00 77 1019.0
20260509153551 12 185 0.0 0.0 0.00 0.00 0.00 77 1019.0
20260509153528 12 188 0.0 1.6 0.00 0.00 0.00 77 1019.1
20260509153511 12 188 0.0 1.6 0.00 0.00 0.00 77 1019.0
20260509153151 12 177 0.0 3.2 0.00 0.00 0.00 77 1019.0
20260509153103 12 155 0.0 3.2 0.00 0.00 0.00 77 1018.8
20260509153047 12 173 0.0 3.2 0.00 0.00 0.00 77 1019.0
20260509153031 12 174 0.0 3.2 0.00 0.00 0.00 77 1019.0
20260509153016 12 180 0.0 3.2 0.00 0.00 0.00 77 1019.1
20260509152955 12 181 0.0 3.2 0.00 0.00 0.00 77 1019.0
20260509152933 12 155 0.0 3.2 0.00 0.00 0.00 77 1019.0
20260509152436 12 179 0.0 1.6 0.00 0.00 0.00 76 1019.1
20260509152420 12 178 0.0 1.6 0.00 0.00 0.00 76 1019.2
20260509152151 12 181 0.0 1.6 0.00 0.00 0.00 77 1019.0
20260509152135 12 176 0.0 1.6 0.00 0.00 0.00 76 1019.1
20260509151900 12 162 0.0 3.2 0.00 0.00 0.00 75 1019.0
20260509151844 12 163 0.0 3.2 0.00 0.00 0.00 75 1019.1
20260509151822 12 178 0.0 9.7 0.00 0.00 0.00 75 1019.1
20260509151807 12 177 0.0 9.7 0.00 0.00 0.00 75 1019.0
20260509151532 12 163 0.0 9.7 0.00 0.00 0.00 74 1019.0
20260509151246 12 139 0.0 9.7 0.00 0.00 0.00 74 1019.0
20260509151230 12 52 1.6 9.7 0.00 0.00 0.00 74 1019.2
20260509150651 12 58 3.2 9.7 0.00 0.00 0.00 73 1019.0
20260509150552 13 136 0.0 3.2 0.00 0.00 0.00 73 1019.1
20260509150451 13 168 0.0 3.2 0.00 0.00 0.00 74 1019.0
20260509150427 13 133 0.0 3.2 0.00 0.00 0.00 73 1019.2
20260509150412 13 179 0.0 3.2 0.00 0.00 0.00 74 1019.2
20260509150105 13 163 0.0 3.2 0.00 0.00 0.00 74 1019.1
20260509145952 13 148 0.0 3.2 0.00 0.00 0.00 73 1019.1
20260509145851 13 65 1.6 3.2 0.00 0.00 0.00 73 1019.0
20260509145752 13 177 0.0 0.0 0.00 0.00 0.00 74 1018.9
20260509145734 13 175 0.0 0.0 0.00 0.00 0.00 73 1019.3
20260509145712 13 177 0.0 0.0 0.00 0.00 0.00 74 1019.1
20260509145439 12 178 0.0 0.0 0.00 0.00 0.00 73 1019.1
20260509145430 13 180 0.0 0.0 0.00 0.00 0.00 73 1019.0
20260509145415 13 179 0.0 0.0 0.00 0.00 0.00 74 1018.9
20260509145359 12 179 0.0 0.0 0.00 0.00 0.00 73 1019.1
20260509145340 12 178 0.0 0.0 0.00 0.00 0.00 73 1019.1
20260509145114 12 150 0.0 0.0 0.00 0.00 0.00 73 1019.2
20260509144751 13 168 0.0 0.0 0.00 0.00 0.00 74 1019.3
20260509144651 13 171 0.0 1.6 0.00 0.00 0.00 75 1019.1
20260509144552 13 171 0.0 1.6 0.00 0.00 0.00 75 1019.1
20260509144451 13 162 0.0 1.6 0.00 0.00 0.00 75 1019.2
20260509144351 13 180 0.0 1.6 0.00 0.00 0.00 76 1019.1
20260509144251 12 182 0.0 1.6 0.00 0.00 0.00 76 1019.0
20260509144151 12 182 0.0 1.6 0.00 0.00 0.00 75 1019.2
20260509144053 12 181 0.0 1.6 0.00 0.00 0.00 75 1019.2
20260509143952 12 172 0.0 1.6 0.00 0.00 0.00 75 1019.3
20260509143840 12 109 0.0 1.6 0.00 0.00 0.00 75 1019.2
20260509143740 12 162 0.0 0.0 0.00 0.00 0.00 75 1018.9
20260509143639 12 186 0.0 0.0 0.00 0.00 0.00 75 1019.2
20260509143539 12 175 0.0 0.0 0.00 0.00 0.00 75 1019.1
20260509143440 12 174 0.0 0.0 0.00 0.00 0.00 75 1019.1
20260509143416 12 163 0.0 1.6 0.00 0.00 0.00 75 1019.1
20260509143400 12 165 0.0 1.6 0.00 0.00 0.00 75 1018.9
20260509143040 12 176 0.0 1.6 0.00 0.00 0.00 74 1019.0
20260509143014 12 172 0.0 1.6 0.00 0.00 0.00 75 1019.1
20260509142958 12 172 0.0 1.6 0.00 0.00 0.00 75 1018.9
20260509142942 12 146 0.0 1.6 0.00 0.00 0.00 74 1019.0
20260509142707 12 164 0.0 1.6 0.00 0.00 0.00 74 1019.1
20260509142700 12 125 0.0 1.6 0.00 0.00 0.00 74 1019.1
20260509142339 13 150 0.0 0.0 0.00 0.00 0.00 75 1019.2
20260509142239 12 176 0.0 0.0 0.00 0.00 0.00 75 1019.0
20260509142138 12 173 0.0 0.0 0.00 0.00 0.00 74 1019.0
20260509142041 12 173 0.0 0.0 0.00 0.00 0.00 73 1019.0
20260509141939 12 176 0.0 0.0 0.00 0.00 0.00 73 1019.0
20260509141839 13 168 0.0 0.0 0.00 0.00 0.00 73 1019.0
20260509141739 13 170 0.0 1.6 0.00 0.00 0.00 73 1019.1
20260509141629 12 161 0.0 1.6 0.00 0.00 0.00 73 1019.2
20260509141548 12 161 0.0 1.6 0.00 0.00 0.00 73 1019.2
20260509141527 12 173 0.0 1.6 0.00 0.00 0.00 73 1019.0
20260509141427 12 144 0.0 1.6 0.00 0.00 0.00 73 1019.1
20260509141329 12 137 0.0 1.6 0.00 0.00 0.00 73 1019.0
20260509141227 12 123 0.0 1.6 0.00 0.00 0.00 73 1019.1
20260509141129 12 167 0.0 1.6 0.00 0.00 0.00 73 1019.1
20260509141047 12 158 0.0 1.6 0.00 0.00 0.00 72 1019.1
20260509141027 12 142 0.0 1.6 0.00 0.00 0.00 72 1019.0
20260509141002 12 142 0.0 1.6 0.00 0.00 0.00 72 1019.1
20260509140948 12 151 0.0 1.6 0.00 0.00 0.00 72 1019.1
20260509140627 13 167 0.0 1.6 0.00 0.00 0.00 72 1019.0
20260509140547 13 167 0.0 1.6 0.00 0.00 0.00 72 1019.0
20260509140528 13 167 0.0 1.6 0.00 0.00 0.00 72 1019.1
20260509140427 13 174 0.0 1.6 0.00 0.00 0.00 72 1019.0
20260509140327 13 159 0.0 1.6 0.00 0.00 0.00 71 1019.0
20260509140227 13 121 0.0 1.6 0.00 0.00 0.00 72 1019.1
20260509140129 13 171 0.0 0.0 0.00 0.00 0.00 72 1019.2
20260509140059 13 172 0.0 0.0 0.00 0.00 0.00 72 1019.2
20260509140028 13 175 0.0 0.0 0.00 0.00 0.00 72 1019.1
20260509140005 13 179 0.0 0.0 0.00 0.00 0.00 71 1018.9
20260509135947 13 172 0.0 0.0 0.00 0.00 0.00 71 1019.0
20260509135626 13 176 0.0 0.0 0.00 0.00 0.00 71 1019.1
20260509135547 13 176 0.0 0.0 0.00 0.00 0.00 71 1019.1
20260509135528 13 176 0.0 0.0 0.00 0.00 0.00 70 1018.9
20260509135427 13 176 0.0 0.0 0.00 0.00 0.00 70 1019.1
20260509135327 13 149 0.0 0.0 0.00 0.00 0.00 71 1019.0
20260509135227 13 149 0.0 0.0 0.00 0.00 0.00 71 1019.1
20260509135127 13 174 0.0 0.0 0.00 0.00 0.00 71 1019.0
20260509135047 13 174 0.0 0.0 0.00 0.00 0.00 71 1019.0
20260509135027 13 174 0.0 0.0 0.00 0.00 0.00 71 1018.9
20260509134927 13 167 0.0 0.0 0.00 0.00 0.00 72 1019.1
20260509134827 13 131 0.0 0.0 0.00 0.00 0.00 71 1019.2
20260509134727 13 183 0.0 0.0 0.00 0.00 0.00 71 1019.1
20260509134645 13 174 0.0 0.0 0.00 0.00 0.00 70 1019.2
20260509134630 13 166 0.0 0.0 0.00 0.00 0.00 70 1019.2
20260509134622 13 188 0.0 0.0 0.00 0.00 0.00 70 1019.1
20260509134606 13 188 0.0 0.0 0.00 0.00 0.00 70 1019.0
20260509134551 13 188 0.0 0.0 0.00 0.00 0.00 70 1019.1
20260509134314 13 167 0.0 0.0 0.00 0.00 0.00 71 1019.0
20260509134257 13 177 0.0 0.0 0.00 0.00 0.00 71 1019.0
20260509134249 13 177 0.0 0.0 0.00 0.00 0.00 72 1019.1
20260509134234 13 175 0.0 0.0 0.00 0.00 0.00 72 1019.0
20260509133957 13 157 0.0 0.0 0.00 0.00 0.00 70 1019.1
20260509133942 13 188 0.0 0.0 0.00 0.00 0.00 70 1019.1
20260509133926 13 188 0.0 0.0 0.00 0.00 0.00 70 1019.1
20260509133439 13 184 0.0 0.0 0.00 0.00 0.00 70 1019.0
20260509133422 13 180 0.0 0.0 0.00 0.00 0.00 70 1019.2
20260509133407 13 179 0.0 0.0 0.00 0.00 0.00 70 1019.2
20260509133351 13 177 0.0 0.0 0.00 0.00 0.00 70 1019.2
20260509133343 13 167 0.0 0.0 0.00 0.00 0.00 70 1019.1
20260509133327 13 169 0.0 0.0 0.00 0.00 0.00 72 1019.3
20260509132832 12 177 0.0 0.0 0.00 0.00 0.00 71 1019.2
20260509132818 12 159 0.0 0.0 0.00 0.00 0.00 71 1019.2
20260509132549 12 156 0.0 0.0 0.00 0.00 0.00 72 1019.3
20260509132533 12 172 0.0 0.0 0.00 0.00 0.00 73 1019.3
20260509132516 12 169 0.0 0.0 0.00 0.00 0.00 73 1019.3
20260509132239 12 181 0.0 0.0 0.00 0.00 0.00 72 1019.1
20260509131927 12 160 0.0 0.0 0.00 0.00 0.00 73 1019.1
20260509131828 12 174 0.0 0.0 0.00 0.00 0.00 73 1019.2
20260509131726 12 183 0.0 0.0 0.00 0.00 0.00 73 1019.2
20260509131628 12 183 0.0 0.0 0.00 0.00 0.00 73 1019.2
20260509131547 12 185 0.0 0.0 0.00 0.00 0.00 72 1019.2
20260509131528 12 187 0.0 0.0 0.00 0.00 0.00 73 1019.2
20260509131447 12 185 0.0 0.0 0.00 0.00 0.00 75 1019.2
20260509131439 12 183 0.0 0.0 0.00 0.00 0.00 73 1019.2
20260509131424 12 183 0.0 0.0 0.00 0.00 0.00 73 1019.2
20260509131407 12 185 0.0 0.0 0.00 0.00 0.00 74 1019.2
20260509131141 12 186 0.0 0.0 0.00 0.00 0.00 74 1019.2
20260509131125 12 179 0.0 0.0 0.00 0.00 0.00 74 1019.2
20260509131117 12 180 0.0 0.0 0.00 0.00 0.00 74 1019.2
20260509131101 12 180 0.0 0.0 0.00 0.00 0.00 74 1019.1
20260509130823 12 185 0.0 0.0 0.00 0.00 0.00 75 1019.2
20260509130807 12 183 0.0 0.0 0.00 0.00 0.00 75 1019.2
20260509130528 12 188 0.0 0.0 0.00 0.00 0.00 76 1019.3
20260509130429 12 188 0.0 0.0 0.00 0.00 0.00 76 1019.1
20260509130327 12 187 0.0 0.0 0.00 0.00 0.00 75 1019.1
20260509130226 12 187 0.0 0.0 0.00 0.00 0.00 75 1019.1
20260509130127 12 181 0.0 0.0 0.00 0.00 0.00 76 1019.2
20260509130027 12 180 0.0 0.0 0.00 0.00 0.00 76 1019.2
20260509125927 12 180 0.0 0.0 0.00 0.00 0.00 76 1019.1
20260509125827 12 180 0.0 0.0 0.00 0.00 0.00 75 1019.1
20260509125727 12 179 0.0 0.0 0.00 0.00 0.00 75 1019.1
20260509125628 12 175 0.0 0.0 0.00 0.00 0.00 75 1019.4
20260509125547 12 175 0.0 0.0 0.00 0.00 0.00 74 1019.4
20260509125527 12 176 0.0 0.0 0.00 0.00 0.00 74 1019.1
20260509125429 12 172 0.0 0.0 0.00 0.00 0.00 74 1019.0
20260509125405 12 164 0.0 0.0 0.00 0.00 0.00 75 1019.3
20260509125348 12 171 0.0 0.0 0.00 0.00 0.00 75 1019.3
20260509125048 12 177 0.0 0.0 0.00 0.00 0.00 76 1019.2
20260509125028 12 177 0.0 0.0 0.00 0.00 0.00 75 1019.4
20260509124927 12 177 0.0 0.0 0.00 0.00 0.00 76 1019.3
20260509124827 12 178 0.0 0.0 0.00 0.00 0.00 75 1019.2
20260509124802 12 166 0.0 0.0 0.00 0.00 0.00 75 1019.3
20260509124746 12 180 0.0 0.0 0.00 0.00 0.00 75 1019.2
20260509124732 12 180 0.0 0.0 0.00 0.00 0.00 75 1019.2
20260509124724 12 179 0.0 0.0 0.00 0.00 0.00 75 1019.3
20260509124709 12 168 0.0 0.0 0.00 0.00 0.00 75 1019.1
20260509124127 12 181 0.0 0.0 0.00 0.00 0.00 75 1019.2
20260509124047 12 173 0.0 0.0 0.00 0.00 0.00 75 1019.2
20260509124028 12 156 0.0 1.6 0.00 0.00 0.00 75 1019.0
20260509123927 12 179 0.0 1.6 0.00 0.00 0.00 74 1019.2
20260509123827 12 182 0.0 1.6 0.00 0.00 0.00 74 1019.3
20260509123726 12 184 0.0 1.6 0.00 0.00 0.00 75 1019.2
20260509123628 12 182 0.0 1.6 0.00 0.00 0.00 75 1019.2
20260509123548 12 172 0.0 1.6 0.00 0.00 0.00 75 1019.2
20260509123528 12 169 0.0 1.6 0.00 0.00 0.00 75 1019.2
20260509123428 12 145 0.0 1.6 0.00 0.00 0.00 74 1019.0
20260509123347 12 186 0.0 4.8 0.00 0.00 0.00 73 1019.4
20260509123340 12 184 0.0 1.6 0.00 0.00 0.00 74 1019.2
20260509123324 12 172 0.0 3.2 0.00 0.00 0.00 74 1019.2
20260509123309 12 174 0.0 4.8 0.00 0.00 0.00 73 1019.4
20260509123027 12 182 0.0 4.8 0.00 0.00 0.00 73 1019.3
20260509122928 12 178 0.0 4.8 0.00 0.00 0.00 73 1019.2
20260509122827 12 174 0.0 4.8 0.00 0.00 0.00 73 1019.4
20260509122808 12 176 0.0 4.8 0.00 0.00 0.00 73 1019.4
20260509122753 12 167 0.0 4.8 0.00 0.00 0.00 73 1019.2
20260509122739 12 168 0.0 4.8 0.00 0.00 0.00 73 1019.2
20260509122502 12 167 0.0 4.8 0.00 0.00 0.00 72 1019.4
20260509122454 12 152 0.0 4.8 0.00 0.00 0.00 73 1019.3
20260509122438 12 150 0.0 4.8 0.00 0.00 0.00 73 1019.4
20260509122422 12 154 0.0 4.8 0.00 0.00 0.00 72 1019.4
20260509122407 12 31 1.6 4.8 0.00 0.00 0.00 72 1019.4
20260509122138 12 69 0.0 4.8 0.00 0.00 0.00 72 1019.2
20260509122123 13 80 0.0 1.6 0.00 0.00 0.00 72 1019.4
20260509121847 13 182 0.0 1.6 0.00 0.00 0.00 74 1019.4
20260509121547 13 156 0.0 1.6 0.00 0.00 0.00 72 1019.3
20260509121528 13 151 0.0 1.6 0.00 0.00 0.00 72 1019.4
20260509121427 13 170 0.0 1.6 0.00 0.00 0.00 72 1019.4
20260509121327 13 174 0.0 1.6 0.00 0.00 0.00 72 1019.1
20260509121227 13 158 0.0 1.6 0.00 0.00 0.00 72 1019.5
20260509121127 13 173 0.0 0.0 0.00 0.00 0.00 72 1019.6
20260509121049 13 160 0.0 0.0 0.00 0.00 0.00 72 1019.6
20260509121027 13 179 0.0 0.0 0.00 0.00 0.00 72 1019.2
20260509120927 13 179 0.0 0.0 0.00 0.00 0.00 73 1019.2
20260509120828 13 157 0.0 0.0 0.00 0.00 0.00 73 1019.4
20260509120727 13 186 0.0 0.0 0.00 0.00 0.00 73 1019.3
20260509120709 13 181 0.0 0.0 0.00 0.00 0.00 72 1019.3
20260509120655 13 179 0.0 0.0 0.00 0.00 0.00 72 1019.3
20260509120647 13 179 0.0 0.0 0.00 0.00 0.00 72 1019.4
20260509120327 13 179 0.0 0.0 0.00 0.00 0.00 72 1019.3
20260509120227 13 177 0.0 0.0 0.00 0.00 0.00 72 1019.2
20260509120132 13 188 0.0 1.6 0.00 0.00 0.00 72 1019.3
20260509120128 13 174 0.0 0.0 0.00 0.00 0.00 72 1019.3
20260509120112 13 176 0.0 0.0 0.00 0.00 0.00 73 1019.3
20260509120047 13 166 0.0 0.0 0.00 0.00 0.00 73 1019.4
20260509120031 13 157 0.0 0.0 0.00 0.00 0.00 73 1019.4
20260509120015 13 131 0.0 1.6 0.00 0.00 0.00 72 1019.3
20260509120000 13 188 0.0 1.6 0.00 0.00 0.00 73 1019.3
20260509115503 13 174 0.0 1.6 0.00 0.00 0.00 72 1019.2
20260509115447 13 173 0.0 1.6 0.00 0.00 0.00 71 1019.3
20260509115431 13 159 0.0 1.6 0.00 0.00 0.00 71 1019.4
20260509115416 13 169 0.0 1.6 0.00 0.00 0.00 71 1019.1
20260509115359 13 164 0.0 1.6 0.00 0.00 0.00 71 1019.1
20260509114828 13 111 0.0 1.6 0.00 0.00 0.00 70 1019.4
20260509114811 13 171 0.0 0.0 0.00 0.00 0.00 71 1019.2
20260509114755 13 177 0.0 0.0 0.00 0.00 0.00 71 1019.4
20260509114740 13 178 0.0 0.0 0.00 0.00 0.00 70 1019.4
20260509114428 13 179 0.0 0.0 0.00 0.00 0.00 70 1019.3
20260509114406 13 162 0.0 0.0 0.00 0.00 0.00 70 1019.4
20260509114349 13 179 0.0 0.0 0.00 0.00 0.00 71 1019.5
20260509114331 13 180 0.0 0.0 0.00 0.00 0.00 70 1019.4
20260509114315 13 170 0.0 0.0 0.00 0.00 0.00 70 1019.4
20260509114047 13 150 0.0 0.0 0.00 0.00 0.00 69 1019.5
20260509113727 13 164 0.0 0.0 0.00 0.00 0.00 69 1019.4
20260509113626 13 170 0.0 0.0 0.00 0.00 0.00 70 1019.4
20260509113547 13 167 0.0 0.0 0.00 0.00 0.00 70 1019.4
20260509113527 13 150 0.0 0.0 0.00 0.00 0.00 70 1019.4
20260509113427 13 183 0.0 0.0 0.00 0.00 0.00 71 1019.3
20260509113327 13 176 0.0 0.0 0.00 0.00 0.00 71 1019.5
20260509113228 13 182 0.0 0.0 0.00 0.00 0.00 72 1019.3
20260509113126 13 181 0.0 1.6 0.00 0.00 0.00 71 1019.4
20260509113047 13 180 0.0 1.6 0.00 0.00 0.00 71 1019.4
20260509113027 13 166 0.0 1.6 0.00 0.00 0.00 71 1019.4
20260509112942 13 153 0.0 1.6 0.00 0.00 0.00 71 1019.4
20260509112934 13 167 0.0 1.6 0.00 0.00 0.00 72 1019.6
20260509112919 13 178 0.0 1.6 0.00 0.00 0.00 71 1019.4
20260509112902 13 169 0.0 1.6 0.00 0.00 0.00 71 1019.3
20260509112846 13 154 0.0 1.6 0.00 0.00 0.00 71 1019.4
20260509112620 13 165 0.0 1.6 0.00 0.00 0.00 70 1019.4
20260509112605 13 149 0.0 1.6 0.00 0.00 0.00 71 1019.6
20260509112549 13 176 0.0 1.6 0.00 0.00 0.00 70 1019.4
20260509112533 13 174 0.0 1.6 0.00 0.00 0.00 69 1019.2
20260509112257 13 177 0.0 1.6 0.00 0.00 0.00 69 1019.5
20260509112248 13 178 0.0 1.6 0.00 0.00 0.00 69 1019.3
20260509112232 13 170 0.0 1.6 0.00 0.00 0.00 69 1019.5
20260509111728 13 151 0.0 1.6 0.00 0.00 0.00 68 1019.4
20260509111719 13 129 0.0 1.6 0.00 0.00 0.00 68 1019.6
20260509111703 13 137 0.0 1.6 0.00 0.00 0.00 69 1019.3
20260509111647 13 181 0.0 1.6 0.00 0.00 0.00 71 1019.4
20260509111410 13 181 0.0 1.6 0.00 0.00 0.00 69 1019.4
20260509111355 13 183 0.0 1.6 0.00 0.00 0.00 69 1019.4
20260509111333 13 182 0.0 1.6 0.00 0.00 0.00 69 1019.3
20260509111056 13 184 0.0 1.6 0.00 0.00 0.00 69 1019.4
20260509110547 13 165 0.0 1.6 0.00 0.00 0.00 67 1019.3
20260509110515 13 136 0.0 1.6 0.00 0.00 0.00 68 1019.4
20260509110415 13 175 0.0 1.6 0.00 0.00 0.00 69 1019.4
20260509110352 13 179 0.0 1.6 0.00 0.00 0.00 69 1019.4
20260509110336 13 168 0.0 1.6 0.00 0.00 0.00 69 1019.4
20260509110059 13 175 0.0 1.6 0.00 0.00 0.00 69 1019.6
20260509110015 13 182 0.0 1.6 0.00 0.00 0.00 70 1019.5
20260509105915 13 175 0.0 1.6 0.00 0.00 0.00 71 1019.6
20260509105816 13 167 0.0 1.6 0.00 0.00 0.00 71 1019.4
20260509105716 13 182 0.0 1.6 0.00 0.00 0.00 72 1019.4
20260509105615 13 134 0.0 1.6 0.00 0.00 0.00 72 1019.4
20260509105548 13 154 0.0 1.6 0.00 0.00 0.00 74 1019.4
20260509105517 13 176 0.0 1.6 0.00 0.00 0.00 74 1019.7
20260509105415 13 160 0.0 1.6 0.00 0.00 0.00 74 1019.5
20260509105315 13 96 0.0 1.6 0.00 0.00 0.00 73 1019.3
20260509105257 13 160 0.0 1.6 0.00 0.00 0.00 74 1019.4
20260509105240 13 181 0.0 0.0 0.00 0.00 0.00 74 1019.5
20260509105214 13 185 0.0 0.0 0.00 0.00 0.00 74 1019.5
20260509105157 13 185 0.0 0.0 0.00 0.00 0.00 73 1019.7
20260509104615 13 172 0.0 0.0 0.00 0.00 0.00 72 1019.4
20260509104547 13 182 0.0 0.0 0.00 0.00 0.00 72 1019.4
20260509104515 13 178 0.0 0.0 0.00 0.00 0.00 73 1019.5
20260509104415 13 190 0.0 0.0 0.00 0.00 0.00 72 1019.5
20260509104355 13 138 0.0 0.0 0.00 0.00 0.00 72 1019.3
20260509104340 13 159 0.0 0.0 0.00 0.00 0.00 72 1019.6
20260509104324 13 167 0.0 3.2 0.00 0.00 0.00 73 1019.7
20260509104311 13 184 0.0 3.2 0.00 0.00 0.00 73 1019.7
20260509104040 13 179 0.0 3.2 0.00 0.00 0.00 73 1019.7
20260509104025 13 140 0.0 3.2 0.00 0.00 0.00 73 1019.3
20260509104008 13 180 0.0 3.2 0.00 0.00 0.00 73 1019.6
20260509103735 13 181 0.0 3.2 0.00 0.00 0.00 73 1019.6
20260509103435 13 107 0.0 3.2 0.00 0.00 0.00 74 1019.4
20260509103430 13 143 0.0 3.2 0.00 0.00 0.00 72 1019.6
20260509103424 13 182 0.0 3.2 0.00 0.00 0.00 74 1019.7
20260509103408 13 160 0.0 3.2 0.00 0.00 0.00 74 1019.5
20260509103353 13 177 0.0 3.2 0.00 0.00 0.00 73 1019.5
20260509103337 13 165 0.0 3.2 0.00 0.00 0.00 74 1019.4
20260509103108 13 187 0.0 3.2 0.00 0.00 0.00 73 1019.5
20260509103052 13 179 0.0 3.2 0.00 0.00 0.00 74 1019.7
20260509103036 13 177 0.0 3.2 0.00 0.00 0.00 73 1019.6
20260509103021 13 175 0.0 3.2 0.00 0.00 0.00 73 1019.9
20260509102512 13 166 0.0 3.2 0.00 0.00 0.00 73 1019.5
20260509102446 13 170 0.0 3.2 0.00 0.00 0.00 73 1019.4
20260509102430 13 204 0.0 3.2 0.00 0.00 0.00 73 1019.6
20260509102111 13 156 0.0 0.0 0.00 0.00 0.00 73 1019.6
20260509102045 13 182 0.0 0.0 0.00 0.00 0.00 75 1019.6
20260509102011 13 179 0.0 0.0 0.00 0.00 0.00 75 1019.9
20260509101911 12 175 0.0 0.0 0.00 0.00 0.00 74 1019.5
20260509101811 12 174 0.0 0.0 0.00 0.00 0.00 75 1019.5
20260509101712 12 165 0.0 0.0 0.00 0.00 0.00 74 1019.6
20260509101611 12 166 0.0 1.6 0.00 0.00 0.00 74 1019.8
20260509101544 12 154 0.0 1.6 0.00 0.00 0.00 74 1019.8
20260509101512 12 172 0.0 1.6 0.00 0.00 0.00 74 1019.5
20260509101412 12 162 0.0 1.6 0.00 0.00 0.00 75 1019.7
20260509101348 12 173 0.0 1.6 0.00 0.00 0.00 74 1019.7
20260509101331 12 176 0.0 1.6 0.00 0.00 0.00 75 1019.5
20260509101043 12 159 0.0 1.6 0.00 0.00 0.00 74 1019.7
20260509101012 12 173 0.0 1.6 0.00 0.00 0.00 74 1019.6
20260509100911 12 167 0.0 1.6 0.00 0.00 0.00 74 1019.6
20260509100811 12 177 0.0 1.6 0.00 0.00 0.00 73 1019.4
20260509100752 12 119 0.0 1.6 0.00 0.00 0.00 73 1019.7
20260509100737 12 142 0.0 1.6 0.00 0.00 0.00 73 1019.8
20260509100724 12 144 0.0 1.6 0.00 0.00 0.00 73 1019.8
20260509100412 12 174 0.0 3.2 0.00 0.00 0.00 74 1019.9
20260509100346 12 165 0.0 3.2 0.00 0.00 0.00 74 1019.7
20260509100331 12 127 0.0 3.2 0.00 0.00 0.00 74 1019.8
20260509100056 12 178 0.0 3.2 0.00 0.00 0.00 75 1019.7
20260509100012 12 172 0.0 3.2 0.00 0.00 0.00 75 1019.6
20260509095911 12 167 0.0 3.2 0.00 0.00 0.00 75 1019.7
20260509095811 12 157 0.0 3.2 0.00 0.00 0.00 75 1019.6
20260509095710 12 180 0.0 3.2 0.00 0.00 0.00 76 1019.5
20260509095612 12 132 0.0 3.2 0.00 0.00 0.00 75 1019.7
20260509095543 12 174 0.0 3.2 0.00 0.00 0.00 75 1019.7
20260509095511 12 143 0.0 1.6 0.00 0.00 0.00 76 1019.5
20260509095412 12 168 0.0 1.6 0.00 0.00 0.00 76 1019.5
20260509095312 12 163 0.0 1.6 0.00 0.00 0.00 76 1019.5
20260509095211 12 153 0.0 1.6 0.00 0.00 0.00 76 1019.7
20260509095111 12 181 0.0 1.6 0.00 0.00 0.00 75 1019.7
20260509095058 12 179 0.0 3.2 0.00 0.00 0.00 76 1019.7
20260509095047 12 176 0.0 3.2 0.00 0.00 0.00 76 1019.5
20260509095031 12 172 0.0 3.2 0.00 0.00 0.00 75 1019.7
20260509094746 12 120 0.0 3.2 0.00 0.00 0.00 74 1019.6
20260509094731 12 165 0.0 3.2 0.00 0.00 0.00 75 1019.6
20260509094719 12 158 0.0 3.2 0.00 0.00 0.00 75 1019.6
20260509094710 12 172 0.0 3.2 0.00 0.00 0.00 75 1019.5
20260509094653 12 163 0.0 3.2 0.00 0.00 0.00 75 1019.7
20260509094111 12 113 1.6 3.2 0.00 0.00 0.00 74 1019.5
20260509094043 12 172 0.0 1.6 0.00 0.00 0.00 74 1019.5
20260509094011 12 167 0.0 1.6 0.00 0.00 0.00 74 1019.6
20260509093912 12 175 0.0 1.6 0.00 0.00 0.00 74 1019.8
20260509093811 12 168 0.0 1.6 0.00 0.00 0.00 74 1019.4
20260509093711 12 89 0.0 1.6 0.00 0.00 0.00 73 1019.6
20260509093611 12 97 0.0 1.6 0.00 0.00 0.00 73 1019.7
20260509093545 12 168 0.0 1.6 0.00 0.00 0.00 73 1019.7
20260509093511 12 181 0.0 1.6 0.00 0.00 0.00 73 1019.6
20260509093412 12 180 0.0 1.6 0.00 0.00 0.00 74 1019.6
20260509093310 12 191 0.0 1.6 0.00 0.00 0.00 74 1019.6
20260509093213 12 74 0.0 1.6 0.00 0.00 0.00 74 1019.5
20260509093112 12 161 0.0 1.6 0.00 0.00 0.00 74 1019.5
20260509093043 12 180 0.0 1.6 0.00 0.00 0.00 74 1019.5
20260509093012 12 174 0.0 1.6 0.00 0.00 0.00 74 1019.4
20260509092912 12 168 0.0 1.6 0.00 0.00 0.00 74 1019.4
20260509092811 12 133 0.0 1.6 0.00 0.00 0.00 74 1019.6
20260509092711 12 151 0.0 1.6 0.00 0.00 0.00 74 1019.7
20260509092611 12 163 0.0 1.6 0.00 0.00 0.00 73 1019.5
20260509092544 12 127 0.0 1.6 0.00 0.00 0.00 74 1019.5
20260509092512 12 181 0.0 1.6 0.00 0.00 0.00 73 1019.6
20260509092411 12 162 0.0 1.6 0.00 0.00 0.00 74 1019.9
20260509092311 12 172 0.0 1.6 0.00 0.00 0.00 74 1019.7
20260509092211 12 167 0.0 1.6 0.00 0.00 0.00 75 1019.8
20260509092112 12 162 0.0 1.6 0.00 0.00 0.00 74 1019.8
20260509092044 12 172 0.0 1.6 0.00 0.00 0.00 74 1019.8
20260509092011 12 162 0.0 1.6 0.00 0.00 0.00 74 1019.8
20260509091912 12 179 0.0 1.6 0.00 0.00 0.00 74 1019.7
20260509091812 12 175 0.0 4.8 0.00 0.00 0.00 74 1019.8
20260509091754 12 178 0.0 4.8 0.00 0.00 0.00 74 1019.7
20260509091738 12 140 0.0 4.8 0.00 0.00 0.00 74 1019.6
20260509091725 12 150 0.0 4.8 0.00 0.00 0.00 74 1019.6
20260509091411 12 176 0.0 11.3 0.00 0.00 0.00 73 1019.6
20260509091259 12 175 0.0 11.3 0.00 0.00 0.00 73 1019.4
20260509091159 12 176 0.0 11.3 0.00 0.00 0.00 73 1019.7
20260509091059 12 171 0.0 11.3 0.00 0.00 0.00 73 1019.7
20260509091043 12 171 0.0 11.3 0.00 0.00 0.00 74 1019.7
20260509090959 12 159 0.0 11.3 0.00 0.00 0.00 73 1019.4
20260509090859 12 55 1.6 11.3 0.00 0.00 0.00 73 1019.4
20260509090759 12 170 0.0 11.3 0.00 0.00 0.00 74 1019.5
20260509090741 12 174 0.0 11.3 0.00 0.00 0.00 74 1019.8
20260509090725 12 164 0.0 11.3 0.00 0.00 0.00 74 1019.7
20260509090713 12 151 0.0 11.3 0.00 0.00 0.00 74 1019.7
20260509090359 12 82 1.6 4.8 0.00 0.00 0.00 74 1019.7
20260509090300 12 171 0.0 4.8 0.00 0.00 0.00 74 1019.4
20260509090200 12 146 0.0 4.8 0.00 0.00 0.00 74 1019.5
20260509090110 12 180 0.0 4.8 0.00 0.00 0.00 75 1019.5
20260509090058 12 178 0.0 4.8 0.00 0.00 0.00 74 1019.5
20260509085959 12 161 0.0 4.8 0.00 0.00 0.00 74 1019.5
20260509085858 12 119 0.0 4.8 0.00 0.00 0.00 74 1019.6
20260509085830 12 55 1.6 4.8 0.00 0.00 0.00 74 1019.8
20260509085814 12 177 0.0 4.8 0.00 0.00 0.00 74 1019.7
20260509085547 12 40 1.6 4.8 0.00 0.00 0.00 74 1019.6
20260509085436 12 142 0.0 1.6 0.00 0.00 0.00 75 1019.6
20260509085337 12 175 0.0 0.0 0.00 0.00 0.00 76 1019.5
20260509085320 12 171 0.0 0.0 0.00 0.00 0.00 76 1019.4
20260509085306 12 172 0.0 0.0 0.00 0.00 0.00 76 1019.4
20260509085035 12 170 0.0 0.0 0.00 0.00 0.00 76 1019.5
20260509084741 12 161 0.0 1.6 0.00 0.00 0.00 75 1019.4
20260509084428 12 128 0.0 1.6 0.00 0.00 0.00 75 1019.5
20260509084328 12 170 0.0 1.6 0.00 0.00 0.00 77 1019.2
20260509084228 12 179 0.0 0.0 0.00 0.00 0.00 77 1019.5
20260509084130 12 175 0.0 0.0 0.00 0.00 0.00 77 1019.5
20260509084114 12 135 0.0 0.0 0.00 0.00 0.00 77 1019.5
20260509084104 12 152 0.0 0.0 0.00 0.00 0.00 76 1019.3
20260509084048 12 176 0.0 0.0 0.00 0.00 0.00 76 1019.6
20260509083728 12 156 0.0 0.0 0.00 0.00 0.00 75 1019.6
20260509083628 13 148 0.0 0.0 0.00 0.00 0.00 75 1019.4
20260509083548 13 162 0.0 0.0 0.00 0.00 0.00 76 1019.4
20260509083528 13 129 0.0 0.0 0.00 0.00 0.00 76 1019.5
20260509083505 13 181 0.0 0.0 0.00 0.00 0.00 76 1019.6
20260509083449 13 171 0.0 1.6 0.00 0.00 0.00 76 1019.4
20260509083433 12 175 0.0 1.6 0.00 0.00 0.00 76 1019.4
20260509083417 12 161 0.0 1.6 0.00 0.00 0.00 76 1019.3
20260509083403 12 181 0.0 1.6 0.00 0.00 0.00 76 1019.3
20260509082846 12 167 0.0 1.6 0.00 0.00 0.00 75 1019.5
20260509082840 12 179 0.0 1.6 0.00 0.00 0.00 75 1019.4
20260509082823 12 182 0.0 1.6 0.00 0.00 0.00 75 1019.5
20260509082807 12 176 0.0 1.6 0.00 0.00 0.00 76 1019.5
20260509082527 12 123 0.0 1.6 0.00 0.00 0.00 75 1019.5
20260509082428 12 199 0.0 1.6 0.00 0.00 0.00 75 1019.4
20260509082327 12 175 0.0 1.6 0.00 0.00 0.00 76 1019.3
20260509082227 12 149 0.0 1.6 0.00 0.00 0.00 76 1019.3
20260509082127 12 184 0.0 1.6 0.00 0.00 0.00 76 1019.3
20260509082047 12 177 0.0 1.6 0.00 0.00 0.00 76 1019.2
20260509082028 12 174 0.0 1.6 0.00 0.00 0.00 76 1019.3
20260509081927 12 180 0.0 1.6 0.00 0.00 0.00 77 1019.2
20260509081902 12 179 0.0 1.6 0.00 0.00 0.00 76 1019.4
20260509081846 12 169 0.0 1.6 0.00 0.00 0.00 76 1019.5
20260509081548 12 116 0.0 1.6 0.00 0.00 0.00 76 1019.4
20260509081528 12 146 0.0 1.6 0.00 0.00 0.00 77 1019.4
20260509081428 12 171 0.0 1.6 0.00 0.00 0.00 77 1019.3
20260509081328 12 167 0.0 1.6 0.00 0.00 0.00 76 1019.4
20260509081228 12 60 0.0 1.6 0.00 0.00 0.00 76 1019.3
20260509081127 12 163 0.0 1.6 0.00 0.00 0.00 76 1019.3
20260509081048 12 182 0.0 1.6 0.00 0.00 0.00 76 1019.3
20260509081028 12 172 0.0 1.6 0.00 0.00 0.00 76 1019.4
20260509080927 12 173 0.0 1.6 0.00 0.00 0.00 76 1019.3
20260509080827 12 108 0.0 1.6 0.00 0.00 0.00 76 1019.5
20260509080727 12 184 0.0 1.6 0.00 0.00 0.00 76 1019.1
20260509080654 12 172 0.0 1.6 0.00 0.00 0.00 76 1019.3
20260509080647 12 178 0.0 1.6 0.00 0.00 0.00 76 1019.2
20260509080633 12 210 0.0 1.6 0.00 0.00 0.00 76 1019.2
20260509080625 12 194 0.0 1.6 0.00 0.00 0.00 77 1019.3
20260509080609 12 171 0.0 1.6 0.00 0.00 0.00 78 1019.3
20260509080554 12 169 0.0 1.6 0.00 0.00 0.00 77 1019.3
20260509080538 12 159 0.0 1.6 0.00 0.00 0.00 77 1019.5
20260509080027 12 160 0.0 1.6 0.00 0.00 0.00 76 1019.5
20260509075927 12 167 0.0 1.6 0.00 0.00 0.00 76 1019.2
20260509075827 12 101 0.0 1.6 0.00 0.00 0.00 76 1019.5
20260509075727 12 179 0.0 1.6 0.00 0.00 0.00 76 1019.3
20260509075627 12 165 0.0 1.6 0.00 0.00 0.00 75 1019.3
20260509075548 12 127 0.0 1.6 0.00 0.00 0.00 75 1019.6
20260509075527 12 183 0.0 1.6 0.00 0.00 0.00 75 1019.4
20260509075426 12 179 0.0 1.6 0.00 0.00 0.00 76 1019.2
20260509075405 12 177 0.0 1.6 0.00 0.00 0.00 75 1019.5
20260509075350 12 170 0.0 1.6 0.00 0.00 0.00 76 1019.4
20260509075335 12 159 0.0 1.6 0.00 0.00 0.00 76 1019.3
20260509075319 12 185 0.0 1.6 0.00 0.00 0.00 76 1019.3
20260509075050 12 73 0.0 0.0 0.00 0.00 0.00 77 1019.5
20260509074742 13 152 0.0 1.6 0.00 0.00 0.00 76 1019.1
20260509074736 12 177 0.0 0.0 0.00 0.00 0.00 78 1019.4
20260509074720 12 174 0.0 6.4 0.00 0.00 0.00 77 1019.3
20260509074705 12 170 0.0 6.4 0.00 0.00 0.00 77 1019.3
20260509074658 12 154 0.0 6.4 0.00 0.00 0.00 77 1019.2
20260509074433 12 137 0.0 6.4 0.00 0.00 0.00 77 1018.9
20260509074418 12 182 0.0 6.4 0.00 0.00 0.00 77 1019.5
20260509074402 12 166 0.0 6.4 0.00 0.00 0.00 77 1019.3
20260509074347 12 174 0.0 6.4 0.00 0.00 0.00 77 1019.1
20260509074332 12 178 0.0 6.4 0.00 0.00 0.00 77 1019.1
20260509074059 12 155 0.0 6.4 0.00 0.00 0.00 76 1019.2
20260509074042 12 98 0.0 6.4 0.00 0.00 0.00 76 1019.3
20260509073806 12 180 0.0 1.6 0.00 0.00 0.00 77 1019.1
20260509073529 13 94 0.0 1.6 0.00 0.00 0.00 76 1019.3
20260509073428 13 144 0.0 1.6 0.00 0.00 0.00 76 1019.5
20260509073329 13 183 0.0 1.6 0.00 0.00 0.00 76 1019.4
20260509073243 13 190 0.0 1.6 0.00 0.00 0.00 77 1019.2
20260509073237 13 167 0.0 1.6 0.00 0.00 0.00 76 1019.3
20260509073232 13 138 0.0 1.6 0.00 0.00 0.00 76 1019.3
20260509073217 13 184 0.0 1.6 0.00 0.00 0.00 76 1019.1
20260509073204 13 149 0.0 1.6 0.00 0.00 0.00 76 1019.1
20260509073154 13 173 0.0 1.6 0.00 0.00 0.00 76 1019.4
20260509073138 13 170 0.0 1.6 0.00 0.00 0.00 76 1019.3
20260509073122 13 178 0.0 1.6 0.00 0.00 0.00 76 1019.2
20260509072844 13 177 0.0 1.6 0.00 0.00 0.00 76 1019.3
20260509072618 13 74 0.0 1.6 0.00 0.00 0.00 77 1019.1
20260509072603 13 181 0.0 1.6 0.00 0.00 0.00 77 1019.4
20260509072339 13 180 0.0 1.6 0.00 0.00 0.00 76 1019.3
20260509072323 13 123 0.0 1.6 0.00 0.00 0.00 76 1019.1
20260509072307 13 190 0.0 1.6 0.00 0.00 0.00 77 1019.2
20260509072026 13 188 0.0 1.6 0.00 0.00 0.00 77 1019.4
20260509071927 13 152 0.0 1.6 0.00 0.00 0.00 77 1019.1
20260509071827 13 138 0.0 1.6 0.00 0.00 0.00 76 1019.2
20260509071728 13 175 0.0 1.6 0.00 0.00 0.00 77 1019.2
20260509071627 13 174 0.0 1.6 0.00 0.00 0.00 77 1019.3
20260509071547 13 184 0.0 1.6 0.00 0.00 0.00 77 1019.3
20260509071527 13 174 0.0 1.6 0.00 0.00 0.00 77 1019.3
20260509071432 13 171 0.0 1.6 0.00 0.00 0.00 76 1019.3
20260509071403 13 180 0.0 1.6 0.00 0.00 0.00 76 1019.2
20260509071347 13 185 0.0 1.6 0.00 0.00 0.00 76 1019.1
20260509071049 12 182 0.0 1.6 0.00 0.00 0.00 77 1019.1
20260509071028 12 176 0.0 1.6 0.00 0.00 0.00 77 1019.1
20260509070926 12 175 0.0 1.6 0.00 0.00 0.00 77 1019.2
20260509070830 12 75 0.0 1.6 0.00 0.00 0.00 77 1019.2
20260509070812 12 167 0.0 1.6 0.00 0.00 0.00 76 1019.1
20260509070755 12 184 0.0 1.6 0.00 0.00 0.00 76 1019.3
20260509070741 12 181 0.0 1.6 0.00 0.00 0.00 76 1019.3
20260509070506 12 177 0.0 1.6 0.00 0.00 0.00 76 1019.1
20260509070448 12 170 0.0 1.6 0.00 0.00 0.00 77 1019.2
20260509070127 12 178 0.0 1.6 0.00 0.00 0.00 77 1019.2
20260509070100 12 170 0.0 1.6 0.00 0.00 0.00 77 1019.2
20260509070027 12 173 0.0 1.6 0.00 0.00 0.00 77 1019.2
20260509065927 12 152 0.0 1.6 0.00 0.00 0.00 77 1019.0
20260509065827 12 121 0.0 3.2 0.00 0.00 0.00 77 1018.9
20260509065728 12 176 0.0 3.2 0.00 0.00 0.00 77 1019.0
20260509065629 12 196 0.0 3.2 0.00 0.00 0.00 77 1019.0
20260509065547 12 164 0.0 3.2 0.00 0.00 0.00 77 1019.0
20260509065527 12 139 0.0 3.2 0.00 0.00 0.00 77 1019.1
20260509065505 12 178 0.0 3.2 0.00 0.00 0.00 77 1019.2
20260509065448 12 177 0.0 3.2 0.00 0.00 0.00 78 1018.9
20260509065432 12 157 0.0 3.2 0.00 0.00 0.00 78 1019.1
20260509065157 12 139 0.0 3.2 0.00 0.00 0.00 78 1019.1
20260509065147 12 172 0.0 3.2 0.00 0.00 0.00 78 1019.0
20260509064827 12 162 0.0 1.6 0.00 0.00 0.00 78 1019.2
20260509064810 12 139 0.0 1.6 0.00 0.00 0.00 78 1019.1
20260509064755 12 165 0.0 0.0 0.00 0.00 0.00 78 1019.2
20260509064741 12 175 0.0 0.0 0.00 0.00 0.00 78 1019.2
20260509064427 12 167 0.0 0.0 0.00 0.00 0.00 79 1019.1
20260509064326 12 176 0.0 0.0 0.00 0.00 0.00 78 1019.0
20260509064227 12 176 0.0 1.6 0.00 0.00 0.00 79 1019.3
20260509064150 12 175 0.0 3.2 0.00 0.00 0.00 79 1019.0
20260509064143 12 176 0.0 3.2 0.00 0.00 0.00 79 1019.3
20260509064129 12 172 0.0 3.2 0.00 0.00 0.00 78 1019.1
20260509064119 12 169 0.0 3.2 0.00 0.00 0.00 78 1019.2
20260509064103 12 149 0.0 3.2 0.00 0.00 0.00 78 1019.0
20260509063838 12 176 0.0 3.2 0.00 0.00 0.00 79 1019.1
20260509063823 12 175 0.0 3.2 0.00 0.00 0.00 79 1019.1
20260509063807 12 175 0.0 3.2 0.00 0.00 0.00 79 1019.0
20260509063527 12 175 0.0 3.2 0.00 0.00 0.00 79 1019.0
20260509063427 12 116 0.0 3.2 0.00 0.00 0.00 79 1019.2
20260509063326 12 106 0.0 3.2 0.00 0.00 0.00 77 1019.1
20260509063227 13 67 0.0 3.2 0.00 0.00 0.00 77 1019.0
20260509063127 13 184 0.0 1.6 0.00 0.00 0.00 77 1019.0
20260509063048 13 168 0.0 1.6 0.00 0.00 0.00 77 1019.0
20260509063028 13 163 0.0 1.6 0.00 0.00 0.00 76 1019.2
20260509062927 13 184 0.0 1.6 0.00 0.00 0.00 77 1019.0
20260509062827 13 186 0.0 3.2 0.00 0.00 0.00 77 1018.7
20260509062816 12 121 0.0 3.2 0.00 0.00 0.00 77 1019.2
20260509062807 13 133 0.0 3.2 0.00 0.00 0.00 77 1019.0
20260509062750 13 163 0.0 3.2 0.00 0.00 0.00 77 1019.3
20260509062735 13 165 0.0 3.2 0.00 0.00 0.00 77 1019.3
20260509062728 12 163 0.0 3.2 0.00 0.00 0.00 76 1019.1
20260509062503 12 158 0.0 3.2 0.00 0.00 0.00 77 1018.9
20260509062447 12 94 0.0 3.2 0.00 0.00 0.00 77 1019.1
20260509062431 12 183 0.0 3.2 0.00 0.00 0.00 77 1019.0
20260509062415 12 105 0.0 3.2 0.00 0.00 0.00 77 1019.2
20260509062147 12 176 0.0 3.2 0.00 0.00 0.00 77 1019.2
20260509061826 12 173 0.0 0.0 0.00 0.00 0.00 77 1019.1
20260509061726 12 158 0.0 0.0 0.00 0.00 0.00 78 1019.2
20260509061626 12 160 0.0 0.0 0.00 0.00 0.00 78 1019.3
20260509061546 12 166 0.0 0.0 0.00 0.00 0.00 78 1019.3
20260509061526 12 141 0.0 0.0 0.00 0.00 0.00 78 1019.2
20260509061426 13 162 0.0 0.0 0.00 0.00 0.00 78 1019.1
20260509061343 13 183 0.0 0.0 0.00 0.00 0.00 78 1018.8
20260509061337 13 163 0.0 0.0 0.00 0.00 0.00 78 1019.2
20260509061322 13 176 0.0 0.0 0.00 0.00 0.00 78 1019.1
20260509061305 13 181 0.0 0.0 0.00 0.00 0.00 78 1018.8
20260509061026 13 183 0.0 0.0 0.00 0.00 0.00 78 1018.8
20260509061001 13 182 0.0 0.0 0.00 0.00 0.00 78 1019.2
20260509060946 13 161 0.0 0.0 0.00 0.00 0.00 77 1019.0
20260509060626 13 192 0.0 0.0 0.00 0.00 0.00 79 1019.1
20260509060547 13 192 0.0 0.0 0.00 0.00 0.00 79 1019.1
20260509060526 13 192 0.0 0.0 0.00 0.00 0.00 79 1019.1
20260509060426 13 194 0.0 0.0 0.00 0.00 0.00 80 1019.1
20260509060403 12 186 0.0 0.0 0.00 0.00 0.00 80 1019.1
20260509060347 12 198 0.0 0.0 0.00 0.00 0.00 81 1019.0
20260509060059 12 239 0.0 1.6 0.00 0.00 0.00 82 1019.1
20260509060026 12 196 0.0 1.6 0.00 0.00 0.00 82 1019.2
20260509055933 11 179 0.0 0.0 0.00 0.00 0.00 89 1019.2
20260509055927 11 181 0.0 1.6 0.00 0.00 0.00 83 1019.0
20260509055912 11 178 0.0 1.6 0.00 0.00 0.00 83 1019.1
20260509055856 11 175 0.0 1.6 0.00 0.00 0.00 83 1019.1
20260509055841 11 162 0.0 1.6 0.00 0.00 0.00 84 1019.2
20260509055826 11 175 0.0 1.6 0.00 0.00 0.00 84 1019.2
20260509055558 11 147 0.0 1.6 0.00 0.00 0.00 84 1019.2
20260509055543 11 163 0.0 1.6 0.00 0.00 0.00 85 1019.2
20260509055307 11 152 0.0 0.0 0.00 0.00 0.00 86 1019.2
20260509055251 11 143 0.0 0.0 0.00 0.00 0.00 86 1019.2
20260509055241 11 164 0.0 0.0 0.00 0.00 0.00 86 1019.1
20260509055007 11 177 0.0 0.0 0.00 0.00 0.00 88 1019.1
20260509054951 11 173 0.0 0.0 0.00 0.00 0.00 88 1019.1
20260509054936 11 172 0.0 0.0 0.00 0.00 0.00 89 1019.2
20260509054709 10 179 0.0 0.0 0.00 0.00 0.00 89 1019.2
20260509054654 10 178 0.0 0.0 0.00 0.00 0.00 89 1019.1
20260509054114 10 178 0.0 0.0 0.00 0.00 0.00 89 1019.0
20260509054046 10 176 0.0 0.0 0.00 0.00 0.00 89 1019.0
20260509054014 10 168 0.0 0.0 0.00 0.00 0.00 89 1019.0
20260509053958 10 173 0.0 0.0 0.00 0.00 0.00 89 1019.2
20260509053949 10 167 0.0 0.0 0.00 0.00 0.00 89 1019.2
20260509053932 10 176 0.0 0.0 0.00 0.00 0.00 89 1019.2
20260509053917 10 176 0.0 0.0 0.00 0.00 0.00 89 1018.9
20260509053901 10 176 0.0 0.0 0.00 0.00 0.00 89 1019.2
20260509053634 10 145 0.0 0.0 0.00 0.00 0.00 89 1019.1
20260509053314 10 170 0.0 0.0 0.00 0.00 0.00 89 1019.0
20260509053214 10 180 0.0 0.0 0.00 0.00 0.00 89 1018.9
20260509053114 10 177 0.0 0.0 0.00 0.00 0.00 89 1019.0
20260509053046 10 174 0.0 0.0 0.00 0.00 0.00 89 1019.0
20260509053014 10 161 0.0 0.0 0.00 0.00 0.00 89 1019.3
20260509052915 10 176 0.0 0.0 0.00 0.00 0.00 89 1019.1
20260509052815 10 169 0.0 0.0 0.00 0.00 0.00 89 1019.1
20260509052714 10 174 0.0 0.0 0.00 0.00 0.00 89 1019.0
20260509052615 10 168 0.0 0.0 0.00 0.00 0.00 89 1019.2
20260509052546 10 169 0.0 0.0 0.00 0.00 0.00 89 1019.2
20260509052514 10 170 0.0 0.0 0.00 0.00 0.00 89 1019.1
20260509052414 10 178 0.0 0.0 0.00 0.00 0.00 89 1019.0
20260509052314 10 177 0.0 0.0 0.00 0.00 0.00 90 1019.1
20260509052214 10 157 0.0 0.0 0.00 0.00 0.00 90 1019.1
20260509052114 10 175 0.0 0.0 0.00 0.00 0.00 90 1019.1
20260509052046 10 174 0.0 0.0 0.00 0.00 0.00 90 1019.1
20260509052014 10 172 0.0 0.0 0.00 0.00 0.00 90 1019.1
20260509051914 10 166 0.0 0.0 0.00 0.00 0.00 90 1019.1
20260509051814 10 175 0.0 0.0 0.00 0.00 0.00 91 1019.2
20260509051714 10 176 0.0 0.0 0.00 0.00 0.00 91 1019.0
20260509051614 10 177 0.0 0.0 0.00 0.00 0.00 91 1018.9
20260509051547 10 177 0.0 0.0 0.00 0.00 0.00 91 1018.9
20260509051514 10 175 0.0 0.0 0.00 0.00 0.00 91 1019.0
20260509051414 10 174 0.0 0.0 0.00 0.00 0.00 91 1019.2
20260509051314 10 164 0.0 0.0 0.00 0.00 0.00 91 1019.2
20260509051214 10 168 0.0 0.0 0.00 0.00 0.00 91 1019.1
20260509051114 10 171 0.0 0.0 0.00 0.00 0.00 91 1019.4
20260509051047 10 165 0.0 0.0 0.00 0.00 0.00 91 1019.4
20260509051014 10 178 0.0 0.0 0.00 0.00 0.00 91 1019.1
20260509050914 10 180 0.0 0.0 0.00 0.00 0.00 91 1019.3
20260509050814 10 183 0.0 0.0 0.00 0.00 0.00 91 1019.1
20260509050714 10 183 0.0 0.0 0.00 0.00 0.00 91 1019.1
20260509050658 10 183 0.0 0.0 0.00 0.00 0.00 91 1019.2
20260509050645 10 182 0.0 0.0 0.00 0.00 0.00 91 1019.2
20260509050635 10 186 0.0 0.0 0.00 0.00 0.00 91 1019.1
20260509050351 10 186 0.0 0.0 0.00 0.00 0.00 92 1019.2
20260509050335 10 185 0.0 0.0 0.00 0.00 0.00 91 1018.9
20260509050319 10 185 0.0 0.0 0.00 0.00 0.00 91 1018.9
20260509050305 10 185 0.0 0.0 0.00 0.00 0.00 92 1018.9
20260509050254 10 186 0.0 0.0 0.00 0.00 0.00 92 1018.9
20260509045714 9 186 0.0 0.0 0.00 0.00 0.00 92 1019.1
20260509045644 9 184 0.0 0.0 0.00 0.00 0.00 92 1018.8
20260509045631 9 184 0.0 0.0 0.00 0.00 0.00 92 1018.8
20260509045622 9 185 0.0 0.0 0.00 0.00 0.00 92 1018.9
20260509045339 9 186 0.0 0.0 0.00 0.00 0.00 92 1019.1
20260509045322 9 185 0.0 0.0 0.00 0.00 0.00 92 1018.8
20260509045046 9 185 0.0 0.0 0.00 0.00 0.00 92 1018.8
20260509045002 9 184 0.0 0.0 0.00 0.00 0.00 92 1019.0
20260509044902 9 187 0.0 0.0 0.00 0.00 0.00 92 1018.8
20260509044837 9 186 0.0 0.0 0.00 0.00 0.00 92 1018.9
20260509044821 9 186 0.0 0.0 0.00 0.00 0.00 92 1018.8
20260509044546 9 186 0.0 0.0 0.00 0.00 0.00 92 1019.0
20260509044502 9 186 0.0 0.0 0.00 0.00 0.00 92 1018.9
20260509044402 9 186 0.0 0.0 0.00 0.00 0.00 92 1018.7
20260509044302 9 186 0.0 0.0 0.00 0.00 0.00 92 1019.0
20260509044203 9 186 0.0 0.0 0.00 0.00 0.00 92 1019.0
20260509044101 9 186 0.0 0.0 0.00 0.00 0.00 92 1019.1
20260509044046 9 186 0.0 0.0 0.00 0.00 0.00 92 1019.1
20260509044002 9 186 0.0 0.0 0.00 0.00 0.00 92 1018.9
20260509043902 9 186 0.0 0.0 0.00 0.00 0.00 92 1018.9
20260509043802 9 186 0.0 0.0 0.00 0.00 0.00 92 1019.1
20260509043702 9 186 0.0 0.0 0.00 0.00 0.00 92 1019.1
20260509043546 9 186 0.0 0.0 0.00 0.00 0.00 92 1019.1
20260509043523 9 186 0.0 0.0 0.00 0.00 0.00 92 1018.9
20260509043203 9 186 0.0 0.0 0.00 0.00 0.00 92 1019.0
20260509043103 9 185 0.0 0.0 0.00 0.00 0.00 92 1019.0
20260509043046 9 185 0.0 0.0 0.00 0.00 0.00 92 1019.0
20260509043002 9 185 0.0 0.0 0.00 0.00 0.00 92 1018.9
20260509042902 9 185 0.0 0.0 0.00 0.00 0.00 92 1018.9
20260509042838 9 185 0.0 0.0 0.00 0.00 0.00 91 1019.1
20260509042823 9 185 0.0 0.0 0.00 0.00 0.00 92 1019.0
20260509042546 9 185 0.0 0.0 0.00 0.00 0.00 92 1019.0
20260509042503 9 185 0.0 0.0 0.00 0.00 0.00 92 1019.1
20260509042403 9 185 0.0 0.0 0.00 0.00 0.00 92 1019.2
20260509042343 9 182 0.0 0.0 0.00 0.00 0.00 92 1018.9
20260509042334 9 182 0.0 0.0 0.00 0.00 0.00 92 1018.9
20260509042318 9 182 0.0 0.0 0.00 0.00 0.00 92 1018.9
20260509042300 9 182 0.0 0.0 0.00 0.00 0.00 92 1018.9
20260509041950 9 182 0.0 0.0 0.00 0.00 0.00 92 1018.9
20260509041850 9 181 0.0 0.0 0.00 0.00 0.00 92 1018.8
20260509041751 9 181 0.0 0.0 0.00 0.00 0.00 92 1018.9
20260509041718 9 181 0.0 0.0 0.00 0.00 0.00 92 1018.9
20260509041656 9 179 0.0 0.0 0.00 0.00 0.00 91 1019.0
20260509041640 9 180 0.0 0.0 0.00 0.00 0.00 91 1019.0
20260509041626 9 180 0.0 0.0 0.00 0.00 0.00 91 1018.9
20260509041350 9 178 0.0 0.0 0.00 0.00 0.00 91 1018.8
20260509041328 9 178 0.0 0.0 0.00 0.00 0.00 91 1018.8
20260509041049 9 174 0.0 0.0 0.00 0.00 0.00 91 1018.7
20260509040814 8 178 0.0 0.0 0.00 0.00 0.00 91 1019.0
20260509040546 8 176 0.0 0.0 0.00 0.00 0.00 91 1019.0
20260509040521 9 174 0.0 0.0 0.00 0.00 0.00 91 1019.1
20260509040506 9 161 0.0 0.0 0.00 0.00 0.00 91 1018.9
20260509040230 9 180 0.0 0.0 0.00 0.00 0.00 91 1018.8
20260509040207 9 178 0.0 0.0 0.00 0.00 0.00 91 1018.7
20260509035847 8 175 0.0 0.0 0.00 0.00 0.00 91 1018.8
20260509035837 8 181 0.0 0.0 0.00 0.00 0.00 91 1018.8
20260509035827 8 151 0.0 0.0 0.00 0.00 0.00 91 1018.8
20260509035812 8 181 0.0 0.0 0.00 0.00 0.00 91 1018.7
20260509035755 8 181 0.0 0.0 0.00 0.00 0.00 91 1018.8
20260509035446 8 182 0.0 0.0 0.00 0.00 0.00 91 1018.9
20260509035346 8 178 0.0 0.0 0.00 0.00 0.00 91 1018.9
20260509035247 9 175 0.0 0.0 0.00 0.00 0.00 91 1018.9
20260509035231 9 173 0.0 0.0 0.00 0.00 0.00 90 1019.1
20260509035208 9 180 0.0 0.0 0.00 0.00 0.00 90 1018.8
20260509034846 9 178 0.0 0.0 0.00 0.00 0.00 90 1018.8
20260509034746 9 180 0.0 0.0 0.00 0.00 0.00 90 1018.8
20260509034646 9 178 0.0 0.0 0.00 0.00 0.00 90 1018.8
20260509034546 9 178 0.0 0.0 0.00 0.00 0.00 90 1018.8
20260509034523 9 178 0.0 0.0 0.00 0.00 0.00 90 1018.9
20260509034506 9 177 0.0 1.6 0.00 0.00 0.00 90 1018.8
20260509034146 9 185 0.0 1.6 0.00 0.00 0.00 90 1018.7
20260509034047 9 185 0.0 1.6 0.00 0.00 0.00 90 1018.9
20260509034024 9 190 0.0 1.6 0.00 0.00 0.00 89 1018.5
20260509034008 9 199 0.0 1.6 0.00 0.00 0.00 89 1018.9
20260509033648 9 199 0.0 1.6 0.00 0.00 0.00 89 1018.8
20260509033547 9 199 0.0 1.6 0.00 0.00 0.00 89 1018.8
20260509033446 9 198 0.0 1.6 0.00 0.00 0.00 90 1018.8
20260509033347 9 189 0.0 1.6 0.00 0.00 0.00 89 1018.5
20260509033246 9 189 0.0 1.6 0.00 0.00 0.00 89 1018.8
20260509033148 9 189 0.0 1.6 0.00 0.00 0.00 89 1018.8
20260509033047 9 189 0.0 1.6 0.00 0.00 0.00 89 1018.8
20260509032947 9 189 0.0 1.6 0.00 0.00 0.00 89 1018.5
20260509032846 9 187 0.0 1.6 0.00 0.00 0.00 90 1018.7
20260509032747 9 187 0.0 1.6 0.00 0.00 0.00 90 1018.7
20260509032646 9 187 0.0 1.6 0.00 0.00 0.00 90 1018.7
20260509032551 9 179 0.0 1.6 0.00 0.00 0.00 90 1018.5
20260509032530 9 187 0.0 0.0 0.00 0.00 0.00 89 1018.8
20260509032520 9 177 0.0 1.6 0.00 0.00 0.00 90 1018.4
20260509032505 9 174 0.0 1.6 0.00 0.00 0.00 89 1018.8
20260509032450 9 192 0.0 1.6 0.00 0.00 0.00 89 1018.7
20260509032435 9 188 0.0 0.0 0.00 0.00 0.00 89 1018.8
20260509032417 9 187 0.0 0.0 0.00 0.00 0.00 89 1018.8
20260509031846 9 187 0.0 0.0 0.00 0.00 0.00 89 1018.9
20260509031746 9 187 0.0 0.0 0.00 0.00 0.00 89 1018.8
20260509031646 9 187 0.0 0.0 0.00 0.00 0.00 89 1018.5
20260509031547 9 187 0.0 0.0 0.00 0.00 0.00 89 1018.5
20260509031435 9 186 0.0 0.0 0.00 0.00 0.00 89 1018.5
20260509031334 9 186 0.0 0.0 0.00 0.00 0.00 89 1018.7
20260509031234 9 186 0.0 0.0 0.00 0.00 0.00 89 1018.9
20260509031134 9 186 0.0 0.0 0.00 0.00 0.00 89 1018.5
20260509031036 9 186 0.0 0.0 0.00 0.00 0.00 89 1018.9
20260509030935 9 186 0.0 0.0 0.00 0.00 0.00 89 1018.8
20260509030834 9 187 0.0 0.0 0.00 0.00 0.00 89 1018.5
20260509030734 9 187 0.0 0.0 0.00 0.00 0.00 89 1019.0
20260509030633 9 187 0.0 0.0 0.00 0.00 0.00 89 1018.8
20260509030533 9 187 0.0 0.0 0.00 0.00 0.00 89 1019.0
20260509030434 9 187 0.0 0.0 0.00 0.00 0.00 89 1019.0
20260509030335 9 187 0.0 0.0 0.00 0.00 0.00 89 1018.7
20260509030234 9 187 0.0 0.0 0.00 0.00 0.00 89 1018.7
20260509030134 9 187 0.0 0.0 0.00 0.00 0.00 90 1018.8
20260509030035 9 187 0.0 0.0 0.00 0.00 0.00 90 1018.7
20260509025934 9 189 0.0 0.0 0.00 0.00 0.00 90 1018.8
20260509025834 9 189 0.0 0.0 0.00 0.00 0.00 90 1018.9
20260509025817 9 189 0.0 0.0 0.00 0.00 0.00 90 1018.8
20260509025801 9 189 0.0 0.0 0.00 0.00 0.00 90 1018.9
20260509025534 9 190 0.0 0.0 0.00 0.00 0.00 91 1018.8
20260509025511 9 190 0.0 0.0 0.00 0.00 0.00 91 1018.7
20260509025454 9 190 0.0 0.0 0.00 0.00 0.00 91 1018.8
20260509025438 9 190 0.0 0.0 0.00 0.00 0.00 91 1018.8
20260509025423 8 190 0.0 0.0 0.00 0.00 0.00 91 1018.8
20260509025155 8 190 0.0 0.0 0.00 0.00 0.00 91 1018.5
20260509024838 8 190 0.0 0.0 0.00 0.00 0.00 92 1018.9
20260509024834 8 190 0.0 0.0 0.00 0.00 0.00 91 1018.7
20260509024819 8 190 0.0 0.0 0.00 0.00 0.00 91 1019.0
20260509024802 8 190 0.0 0.0 0.00 0.00 0.00 91 1018.9
20260509024745 8 190 0.0 0.0 0.00 0.00 0.00 92 1018.9
20260509024434 8 190 0.0 0.0 0.00 0.00 0.00 92 1018.5
20260509024334 8 190 0.0 0.0 0.00 0.00 0.00 92 1018.7
20260509024235 8 190 0.0 0.0 0.00 0.00 0.00 92 1018.8
20260509024219 8 190 0.0 0.0 0.00 0.00 0.00 92 1018.9
20260509024154 8 190 0.0 0.0 0.00 0.00 0.00 92 1018.9
20260509023834 8 190 0.0 1.6 0.00 0.00 0.00 93 1018.8
20260509023734 8 190 0.0 1.6 0.00 0.00 0.00 93 1018.7
20260509023633 8 190 0.0 1.6 0.00 0.00 0.00 93 1018.5
20260509023610 8 190 0.0 1.6 0.00 0.00 0.00 93 1018.7
20260509023554 8 190 0.0 1.6 0.00 0.00 0.00 93 1018.7
20260509023318 8 190 0.0 1.6 0.00 0.00 0.00 94 1018.7
20260509023303 8 190 0.0 1.6 0.00 0.00 0.00 94 1018.8
20260509023035 9 190 0.0 1.6 0.00 0.00 0.00 94 1018.9
20260509022935 9 188 0.0 0.0 0.00 0.00 0.00 94 1019.0
20260509022834 9 188 0.0 0.0 0.00 0.00 0.00 94 1018.9
20260509022734 9 188 0.0 0.0 0.00 0.00 0.00 94 1018.9
20260509022634 9 188 0.0 0.0 0.00 0.00 0.00 94 1018.7
20260509022534 9 188 0.0 0.0 0.00 0.00 0.00 94 1018.7
20260509022433 9 188 0.0 0.0 0.00 0.00 0.00 94 1019.0
20260509022334 9 188 0.0 0.0 0.00 0.00 0.00 94 1018.7
20260509022234 9 188 0.0 0.0 0.00 0.00 0.00 94 1018.7
20260509022135 9 188 0.0 0.0 0.00 0.00 0.00 94 1018.9
20260509022034 9 188 0.0 0.0 0.00 0.00 0.00 94 1018.8
20260509021934 9 188 0.0 0.0 0.00 0.00 0.00 94 1018.8
20260509021833 9 188 0.0 0.0 0.00 0.00 0.00 94 1018.9
20260509021808 9 188 0.0 0.0 0.00 0.00 0.00 94 1018.9
20260509021751 9 188 0.0 0.0 0.00 0.00 0.00 94 1018.8
20260509021729 9 188 0.0 0.0 0.00 0.00 0.00 94 1018.8
20260509021454 9 188 0.0 0.0 0.00 0.00 0.00 94 1018.9
20260509021438 9 188 0.0 0.0 0.00 0.00 0.00 94 1018.7
20260509021423 9 188 0.0 0.0 0.00 0.00 0.00 94 1018.7
20260509021154 9 186 0.0 0.0 0.00 0.00 0.00 94 1018.5
20260509020835 9 183 0.0 0.0 0.00 0.00 0.00 93 1018.7
20260509020734 9 183 0.0 0.0 0.00 0.00 0.00 93 1018.5
20260509020640 9 183 0.0 0.0 0.00 0.00 0.00 93 1018.5
20260509020635 9 183 0.0 0.0 0.00 0.00 0.00 93 1018.8
20260509020613 9 183 0.0 0.0 0.00 0.00 0.00 93 1018.5
20260509020557 9 183 0.0 0.0 0.00 0.00 0.00 93 1018.7
20260509020542 9 183 0.0 0.0 0.00 0.00 0.00 93 1018.7
20260509020305 9 183 0.0 0.0 0.00 0.00 0.00 93 1018.9
20260509020246 9 183 0.0 0.0 0.00 0.00 0.00 93 1018.5
20260509020011 9 183 0.0 0.0 0.00 0.00 0.00 93 1018.5
20260509015955 9 183 0.0 0.0 0.00 0.00 0.00 93 1018.7
20260509015634 9 182 0.0 0.0 0.00 0.00 0.00 93 1018.5
20260509015534 9 183 0.0 0.0 0.00 0.00 0.00 93 1018.9
20260509015434 9 183 0.0 0.0 0.00 0.00 0.00 93 1018.5
20260509015334 9 183 0.0 0.0 0.00 0.00 0.00 93 1018.4
20260509015235 9 182 0.0 0.0 0.00 0.00 0.00 93 1018.8
20260509015219 9 182 0.0 0.0 0.00 0.00 0.00 93 1018.7
20260509015154 9 182 0.0 0.0 0.00 0.00 0.00 93 1018.7
20260509014833 9 182 0.0 0.0 0.00 0.00 0.00 93 1018.7
20260509014734 9 182 0.0 0.0 0.00 0.00 0.00 93 1018.5
20260509014634 9 183 0.0 0.0 0.00 0.00 0.00 93 1018.7
20260509014535 9 183 0.0 0.0 0.00 0.00 0.00 93 1018.8
20260509014435 9 183 0.0 0.0 0.00 0.00 0.00 93 1018.4
20260509014334 9 182 0.0 0.0 0.00 0.00 0.00 93 1018.7
20260509014234 9 182 0.0 0.0 0.00 0.00 0.00 93 1018.9
20260509014135 9 182 0.0 0.0 0.00 0.00 0.00 93 1018.7
20260509014035 9 182 0.0 0.0 0.00 0.00 0.00 93 1018.8
20260509013934 9 182 0.0 0.0 0.00 0.00 0.00 92 1018.5
20260509013835 9 182 0.0 0.0 0.00 0.00 0.00 92 1019.0
20260509013734 9 182 0.0 0.0 0.00 0.00 0.00 92 1018.9
20260509013634 9 182 0.0 0.0 0.00 0.00 0.00 92 1018.7
20260509013535 9 182 0.0 0.0 0.00 0.00 0.00 92 1018.9
20260509013509 9 182 0.0 0.0 0.00 0.00 0.00 92 1018.5
20260509013454 9 182 0.0 0.0 0.00 0.00 0.00 92 1019.0
20260509013134 9 183 0.0 0.0 0.00 0.00 0.00 92 1018.8
20260509013118 9 182 0.0 0.0 0.00 0.00 0.00 92 1018.7
20260509013111 9 182 0.0 0.0 0.00 0.00 0.00 92 1018.9
20260509013055 9 183 0.0 0.0 0.00 0.00 0.00 92 1018.4
20260509013039 9 182 0.0 0.0 0.00 0.00 0.00 92 1018.9
20260509013023 9 182 0.0 0.0 0.00 0.00 0.00 92 1018.9
20260509013008 9 182 0.0 0.0 0.00 0.00 0.00 92 1018.7
20260509012952 9 182 0.0 0.0 0.00 0.00 0.00 92 1018.8
20260509012935 9 182 0.0 0.0 0.00 0.00 0.00 92 1018.7
20260509012710 9 182 0.0 0.0 0.00 0.00 0.00 92 1018.5
20260509012654 9 182 0.0 0.0 0.00 0.00 0.00 92 1018.7
20260509012418 9 182 0.0 0.0 0.00 0.00 0.00 92 1019.0
20260509012358 9 182 0.0 0.0 0.00 0.00 0.00 92 1018.9
20260509012131 9 182 0.0 0.0 0.00 0.00 0.00 92 1018.9
20260509012114 9 182 0.0 0.0 0.00 0.00 0.00 92 1018.8
20260509012058 9 182 0.0 0.0 0.00 0.00 0.00 92 1018.7
20260509012041 9 182 0.0 0.0 0.00 0.00 0.00 92 1018.7
20260509011814 9 182 0.0 0.0 0.00 0.00 0.00 92 1018.7
20260509011234 9 182 0.0 0.0 0.00 0.00 0.00 92 1018.5
20260509011140 9 182 0.0 0.0 0.00 0.00 0.00 91 1018.7
20260509011034 10 182 0.0 0.0 0.00 0.00 0.00 91 1018.8
20260509010934 10 182 0.0 0.0 0.00 0.00 0.00 91 1018.5
20260509010834 10 182 0.0 0.0 0.00 0.00 0.00 91 1018.4
20260509010734 9 182 0.0 0.0 0.00 0.00 0.00 91 1018.8
20260509010634 9 182 0.0 0.0 0.00 0.00 0.00 91 1018.7
20260509010534 9 182 0.0 0.0 0.00 0.00 0.00 91 1018.9
20260509010511 9 182 0.0 0.0 0.00 0.00 0.00 91 1018.8
20260509010455 9 182 0.0 0.0 0.00 0.00 0.00 91 1018.8
20260509010218 9 182 0.0 0.0 0.00 0.00 0.00 91 1018.5
20260509010155 9 182 0.0 0.0 0.00 0.00 0.00 91 1018.7
20260509005833 9 182 0.0 0.0 0.00 0.00 0.00 91 1018.8
20260509005817 9 183 0.0 0.0 0.00 0.00 0.00 91 1018.8
20260509005801 9 182 0.0 0.0 0.00 0.00 0.00 91 1018.7
20260509005534 9 182 0.0 0.0 0.00 0.00 0.00 91 1018.9
20260509005434 9 182 0.0 0.0 0.00 0.00 0.00 91 1018.9
20260509005339 9 182 0.0 0.0 0.00 0.00 0.00 91 1018.8
20260509005334 9 182 0.0 0.0 0.00 0.00 0.00 91 1019.0
20260509005318 9 182 0.0 0.0 0.00 0.00 0.00 91 1018.9
20260509005306 9 182 0.0 0.0 0.00 0.00 0.00 91 1018.8
20260509005242 9 182 0.0 0.0 0.00 0.00 0.00 91 1018.8
20260509004739 9 182 0.0 0.0 0.00 0.00 0.00 91 1018.7
20260509004427 9 182 0.0 0.0 0.00 0.00 0.00 91 1018.9
20260509004402 9 182 0.0 0.0 0.00 0.00 0.00 91 1018.9
20260509004347 9 182 0.0 0.0 0.00 0.00 0.00 92 1018.8
20260509004047 9 182 0.0 0.0 0.00 0.00 0.00 92 1018.8
20260509004028 9 182 0.0 0.0 0.00 0.00 0.00 92 1018.7
20260509003927 9 182 0.0 0.0 0.00 0.00 0.00 92 1018.7
20260509003827 9 182 0.0 0.0 0.00 0.00 0.00 92 1018.7
20260509003728 9 182 0.0 0.0 0.00 0.00 0.00 92 1018.8
20260509003627 9 182 0.0 0.0 0.00 0.00 0.00 92 1019.0
20260509003548 9 182 0.0 0.0 0.00 0.00 0.00 92 1019.0
20260509003527 10 182 0.0 0.0 0.00 0.00 0.00 91 1018.9
20260509003428 10 182 0.0 0.0 0.00 0.00 0.00 91 1019.1
20260509003327 10 182 0.0 0.0 0.00 0.00 0.00 92 1018.8
20260509003228 10 182 0.0 0.0 0.00 0.00 0.00 92 1018.9
20260509003211 10 182 0.0 0.0 0.00 0.00 0.00 91 1019.0
20260509003154 10 182 0.0 0.0 0.00 0.00 0.00 91 1019.0
20260509003146 10 182 0.0 0.0 0.00 0.00 0.00 91 1019.1
20260509002828 10 182 0.0 0.0 0.00 0.00 0.00 91 1019.0
20260509002729 10 182 0.0 0.0 0.00 0.00 0.00 91 1019.0
20260509002627 10 182 0.0 0.0 0.00 0.00 0.00 91 1019.2
20260509002612 10 182 0.0 0.0 0.00 0.00 0.00 91 1019.0
20260509002604 10 182 0.0 0.0 0.00 0.00 0.00 91 1019.2
20260509002556 10 182 0.0 0.0 0.00 0.00 0.00 91 1019.1
20260509002541 10 182 0.0 0.0 0.00 0.00 0.00 91 1018.9
20260509002525 10 182 0.0 0.0 0.00 0.00 0.00 91 1019.1
20260509002508 10 182 0.0 0.0 0.00 0.00 0.00 91 1018.9
20260509002453 10 182 0.0 0.0 0.00 0.00 0.00 91 1019.0
20260509002223 10 182 0.0 0.0 0.00 0.00 0.00 91 1019.2
20260509001947 10 182 0.0 0.0 0.00 0.00 0.00 91 1019.0
20260509001628 10 182 0.0 0.0 0.00 0.00 0.00 90 1018.9
20260509001547 10 182 0.0 0.0 0.00 0.00 0.00 90 1018.9
20260509001527 10 182 0.0 0.0 0.00 0.00 0.00 90 1019.2
20260509001427 10 182 0.0 0.0 0.00 0.00 0.00 90 1019.1
20260509001327 10 182 0.0 0.0 0.00 0.00 0.00 90 1019.1
20260509001228 10 182 0.0 0.0 0.00 0.00 0.00 90 1019.1
20260509001128 10 182 0.0 0.0 0.00 0.00 0.00 90 1019.1
20260509001027 10 182 0.0 0.0 0.00 0.00 0.00 90 1019.1
20260509000927 10 182 0.0 0.0 0.00 0.00 0.00 90 1019.1
20260509000827 10 182 0.0 0.0 0.00 0.00 0.00 90 1019.2
20260509000728 10 181 0.0 0.0 0.00 0.00 0.00 90 1019.1
20260509000700 10 181 0.0 0.0 0.00 0.00 0.00 90 1019.1
20260509000646 10 181 0.0 0.0 0.00 0.00 0.00 90 1019.1
20260509000638 10 181 0.0 0.0 0.00 0.00 0.00 90 1019.0
20260509000621 10 181 0.0 0.0 0.00 0.00 0.00 90 1019.0
20260509000606 10 181 0.0 0.0 0.00 0.00 0.00 90 1019.0
20260509000027 10 181 0.0 0.0 0.00 0.00 0.00 90 1019.3
20260508235926 10 181 0.0 0.0 0.00 0.00 0.00 90 1019.1
20260508235828 10 181 0.0 0.0 0.00 0.00 0.00 90 1019.1
20260508235727 10 181 0.0 0.0 0.00 0.00 0.00 90 1019.3
20260508235701 10 181 0.0 0.0 0.00 0.00 0.00 90 1019.1
20260508235639 10 181 0.0 0.0 0.00 0.00 0.00 90 1019.1
20260508235622 10 181 0.0 0.0 0.00 0.00 0.00 90 1019.0
20260508235606 10 181 0.0 0.0 0.00 0.00 0.00 90 1019.1
20260508235331 10 181 0.0 0.0 0.00 0.00 0.00 90 1019.2
20260508235314 10 181 0.0 0.0 0.00 0.00 0.00 90 1019.2
20260508235307 10 181 0.0 0.0 0.00 0.00 0.00 90 1019.0
20260508235250 10 181 0.0 0.0 0.00 0.00 0.00 90 1019.2
20260508234753 10 181 0.0 0.0 0.00 0.00 0.00 90 1019.3
20260508234738 10 181 0.0 0.0 0.00 0.00 0.00 90 1019.3
20260508234428 10 181 0.0 0.0 0.00 0.00 0.00 90 1019.1
20260508234329 10 181 0.0 0.0 0.00 0.00 0.00 90 1019.3
20260508234313 10 181 0.0 0.0 0.00 0.00 0.00 90 1019.2
20260508234258 10 181 0.0 0.0 0.00 0.00 0.00 90 1019.1
20260508234240 10 181 0.0 0.0 0.00 0.00 0.00 90 1019.1
20260508233927 10 181 0.0 0.0 0.00 0.00 0.00 90 1019.1
20260508233827 10 181 0.0 0.0 0.00 0.00 0.00 90 1019.2
20260508233727 10 181 0.0 0.0 0.00 0.00 0.00 90 1019.2
20260508233628 10 181 0.0 0.0 0.00 0.00 0.00 90 1019.1
20260508233549 10 181 0.0 0.0 0.00 0.00 0.00 90 1019.1
20260508233527 10 181 0.0 0.0 0.00 0.00 0.00 90 1019.2
20260508233427 10 181 0.0 0.0 0.00 0.00 0.00 90 1019.2
20260508233404 10 181 0.0 0.0 0.00 0.00 0.00 90 1019.2
20260508233347 10 181 0.0 0.0 0.00 0.00 0.00 90 1019.3
20260508233047 10 181 0.0 0.0 0.00 0.00 0.00 90 1019.1
20260508233027 10 181 0.0 0.0 0.00 0.00 0.00 90 1019.2
20260508232927 10 181 0.0 0.0 0.00 0.00 0.00 90 1019.2
20260508232903 10 181 0.0 0.0 0.00 0.00 0.00 90 1019.1
20260508232848 10 181 0.0 0.0 0.00 0.00 0.00 90 1018.9
20260508232547 10 180 0.0 0.0 0.00 0.00 0.00 90 1019.2
20260508232527 10 181 0.0 0.0 0.00 0.00 0.00 90 1019.2
20260508232427 10 181 0.0 0.0 0.00 0.00 0.00 90 1019.1
20260508232327 10 180 0.0 0.0 0.00 0.00 0.00 90 1019.3
20260508232227 10 181 0.0 0.0 0.00 0.00 0.00 90 1019.1
20260508232127 10 181 0.0 0.0 0.00 0.00 0.00 90 1019.2
20260508232026 10 181 0.0 0.0 0.00 0.00 0.00 90 1019.2
20260508231927 10 181 0.0 0.0 0.00 0.00 0.00 90 1019.2
20260508231827 10 180 0.0 0.0 0.00 0.00 0.00 90 1019.2
20260508231727 10 180 0.0 0.0 0.00 0.00 0.00 90 1019.0
20260508231642 10 180 0.0 0.0 0.00 0.00 0.00 89 1019.3
20260508231637 10 180 0.0 0.0 0.00 0.00 0.00 89 1019.0
20260508231622 10 181 0.0 0.0 0.00 0.00 0.00 89 1019.0
20260508231615 10 181 0.0 0.0 0.00 0.00 0.00 89 1019.3
20260508231559 10 181 0.0 0.0 0.00 0.00 0.00 89 1019.4
20260508231324 10 181 0.0 0.0 0.00 0.00 0.00 89 1019.4
20260508231308 10 181 0.0 0.0 0.00 0.00 0.00 89 1019.3
20260508231028 10 180 0.0 0.0 0.00 0.00 0.00 89 1019.3
20260508230928 10 180 0.0 0.0 0.00 0.00 0.00 89 1019.3
20260508230827 10 180 0.0 0.0 0.00 0.00 0.00 89 1019.3
20260508230727 10 180 0.0 0.0 0.00 0.00 0.00 89 1019.3
20260508230627 10 180 0.0 0.0 0.00 0.00 0.00 89 1019.2
20260508230548 10 180 0.0 0.0 0.00 0.00 0.00 89 1019.2
20260508230527 10 180 0.0 0.0 0.00 0.00 0.00 89 1019.3
20260508230429 10 180 0.0 0.0 0.00 0.00 0.00 89 1019.3
20260508230328 10 180 0.0 0.0 0.00 0.00 0.00 89 1019.2
20260508230227 10 180 0.0 0.0 0.00 0.00 0.00 89 1019.2
20260508230130 10 180 0.0 0.0 0.00 0.00 0.00 89 1019.1
20260508230113 10 180 0.0 0.0 0.00 0.00 0.00 89 1019.1
20260508230105 10 180 0.0 0.0 0.00 0.00 0.00 89 1019.2
20260508230049 10 180 0.0 0.0 0.00 0.00 0.00 89 1019.3
20260508225728 10 180 0.0 0.0 0.00 0.00 0.00 89 1019.3
20260508225626 10 180 0.0 0.0 0.00 0.00 0.00 89 1019.3
20260508225547 10 180 0.0 0.0 0.00 0.00 0.00 89 1019.3
20260508225527 10 180 0.0 0.0 0.00 0.00 0.00 89 1019.4
20260508225427 10 180 0.0 0.0 0.00 0.00 0.00 89 1019.2
20260508225327 10 180 0.0 0.0 0.00 0.00 0.00 89 1019.3
20260508225228 10 180 0.0 0.0 0.00 0.00 0.00 89 1019.3
20260508225128 10 180 0.0 0.0 0.00 0.00 0.00 89 1019.3
20260508225027 10 180 0.0 0.0 0.00 0.00 0.00 89 1019.3
20260508224923 10 180 0.0 0.0 0.00 0.00 0.00 89 1019.2
20260508224823 10 180 0.0 0.0 0.00 0.00 0.00 89 1019.4
20260508224723 10 180 0.0 0.0 0.00 0.00 0.00 89 1019.4
20260508224657 10 180 0.0 0.0 0.00 0.00 0.00 89 1019.6
20260508224643 10 180 0.0 0.0 0.00 0.00 0.00 89 1019.6
20260508224634 10 180 0.0 0.0 0.00 0.00 0.00 89 1019.5
20260508224618 10 180 0.0 0.0 0.00 0.00 0.00 89 1019.2
20260508224603 10 180 0.0 0.0 0.00 0.00 0.00 89 1019.5
20260508224547 10 180 0.0 0.0 0.00 0.00 0.00 89 1019.3
20260508224311 10 180 0.0 0.0 0.00 0.00 0.00 89 1019.2
20260508224303 10 180 0.0 0.0 0.00 0.00 0.00 89 1019.3
20260508223724 10 180 0.0 0.0 0.00 0.00 0.00 89 1019.2
20260508223623 10 180 0.0 0.0 0.00 0.00 0.00 89 1019.3
20260508223545 10 180 0.0 0.0 0.00 0.00 0.00 89 1019.3
20260508223522 10 180 0.0 0.0 0.00 0.00 0.00 89 1019.2
20260508223423 10 180 0.0 0.0 0.00 0.00 0.00 89 1019.5
20260508223322 10 179 0.0 0.0 0.00 0.00 0.00 89 1019.3
20260508223223 10 179 0.0 0.0 0.00 0.00 0.00 89 1019.2
20260508223123 10 179 0.0 0.0 0.00 0.00 0.00 89 1019.2
20260508223043 10 179 0.0 0.0 0.00 0.00 0.00 89 1019.2
20260508223022 10 179 0.0 0.0 0.00 0.00 0.00 89 1019.3
20260508222959 10 178 0.0 0.0 0.00 0.00 0.00 89 1019.2
20260508222943 10 178 0.0 0.0 0.00 0.00 0.00 89 1019.3
20260508222709 10 181 0.0 0.0 0.00 0.00 0.00 88 1019.5
20260508222659 10 177 0.0 0.0 0.00 0.00 0.00 88 1019.2
20260508222644 10 176 0.0 0.0 0.00 0.00 0.00 88 1019.2
20260508222636 10 176 0.0 0.0 0.00 0.00 0.00 88 1019.3
20260508222620 10 176 0.0 0.0 0.00 0.00 0.00 88 1019.5
20260508222604 10 175 0.0 0.0 0.00 0.00 0.00 88 1019.5
20260508222328 10 161 0.0 0.0 0.00 0.00 0.00 88 1019.5
20260508222059 10 181 0.0 0.0 0.00 0.00 0.00 89 1019.4
20260508222044 10 182 0.0 0.0 0.00 0.00 0.00 89 1019.3
20260508221724 10 181 0.0 0.0 0.00 0.00 0.00 89 1019.5
20260508221622 10 181 0.0 0.0 0.00 0.00 0.00 89 1019.2
20260508221544 10 181 0.0 0.0 0.00 0.00 0.00 89 1019.2
20260508221523 10 181 0.0 0.0 0.00 0.00 0.00 89 1019.3
20260508221423 10 180 0.0 0.0 0.00 0.00 0.00 89 1019.3
20260508221323 10 179 0.0 0.0 0.00 0.00 0.00 89 1019.1
20260508221258 10 179 0.0 0.0 0.00 0.00 0.00 89 1019.2
20260508221243 10 179 0.0 0.0 0.00 0.00 0.00 89 1019.1
20260508221227 10 179 0.0 0.0 0.00 0.00 0.00 89 1019.1
20260508221219 10 179 0.0 0.0 0.00 0.00 0.00 89 1019.2
20260508220943 10 177 0.0 0.0 0.00 0.00 0.00 89 1019.1
20260508220623 10 176 0.0 1.6 0.00 0.00 0.00 89 1019.2
20260508220543 10 176 0.0 1.6 0.00 0.00 0.00 89 1019.2
20260508220523 10 174 0.0 1.6 0.00 0.00 0.00 89 1019.1
20260508220424 10 177 0.0 1.6 0.00 0.00 0.00 89 1019.0
20260508220355 10 174 0.0 1.6 0.00 0.00 0.00 89 1019.2
20260508220348 10 176 0.0 1.6 0.00 0.00 0.00 89 1019.1
20260508220332 10 173 0.0 1.6 0.00 0.00 0.00 89 1019.2
20260508220317 10 174 0.0 1.6 0.00 0.00 0.00 89 1019.2
20260508220024 10 174 0.0 1.6 0.00 0.00 0.00 89 1019.2
20260508215924 10 168 0.0 1.6 0.00 0.00 0.84 89 1019.2
20260508215823 10 144 0.0 0.0 0.00 0.00 0.84 89 1019.1
20260508215723 10 178 0.0 0.0 0.00 0.00 0.84 89 1019.3
20260508215623 10 178 0.0 0.0 0.00 0.00 0.84 89 1019.1
20260508215524 10 178 0.0 0.0 0.00 0.00 0.84 89 1019.1
20260508215458 10 179 0.0 0.0 0.00 0.00 0.84 89 1019.1
20260508215443 10 178 0.0 0.0 0.00 0.00 0.84 89 1019.2
20260508215206 10 179 0.0 0.0 0.00 0.00 0.84 89 1019.1
20260508215142 10 179 0.0 0.0 0.00 0.00 0.84 89 1019.1
20260508214858 10 179 0.0 0.0 0.00 0.00 0.84 89 1019.2
20260508214843 10 179 0.0 0.0 0.00 0.00 0.84 89 1019.2
20260508214544 10 178 0.0 0.0 0.00 0.00 0.84 88 1019.0
20260508214523 10 178 0.0 0.0 0.00 0.00 0.84 88 1018.9
20260508214451 10 179 0.0 0.0 0.00 0.00 0.84 88 1018.9
20260508214436 10 178 0.0 0.0 0.00 0.00 0.84 88 1018.9
20260508214419 10 179 0.0 0.0 0.00 0.00 0.84 88 1019.0
20260508214403 10 179 0.0 0.0 0.00 0.00 0.84 88 1019.1
20260508214339 10 179 0.0 0.0 0.00 0.00 0.84 88 1019.1
20260508214104 10 178 0.0 0.0 0.00 0.00 0.84 87 1019.1
20260508213523 10 177 0.0 0.0 0.00 0.00 0.84 87 1018.9
20260508213452 10 177 0.0 0.0 0.00 0.00 0.84 87 1019.1
20260508213435 10 176 0.0 0.0 0.00 0.00 0.84 87 1019.0
20260508213418 10 176 0.0 0.0 0.00 0.00 0.84 87 1019.0
20260508213403 10 176 0.0 0.0 0.00 0.00 0.84 87 1019.1
20260508213338 10 175 0.0 0.0 0.00 0.00 0.84 87 1019.1
20260508212843 10 176 0.0 1.6 0.00 0.00 0.84 87 1019.2
20260508212545 10 174 0.0 1.6 0.00 0.00 0.84 87 1019.2
20260508212523 10 172 0.0 1.6 0.00 0.00 0.84 87 1019.0
20260508212423 10 160 0.0 1.6 0.00 0.00 0.84 87 1019.0
20260508212323 10 179 0.0 1.6 0.00 0.00 0.84 86 1019.0
20260508212224 10 174 0.0 3.2 0.00 0.00 0.84 86 1019.2
20260508212141 10 164 0.0 3.2 0.00 0.00 0.84 86 1019.0
20260508212135 10 171 0.0 3.2 0.00 0.00 0.84 86 1019.0
20260508212118 10 169 0.0 3.2 0.00 0.00 0.84 86 1019.0
20260508212110 10 168 0.0 3.2 0.00 0.00 0.84 86 1019.0
20260508212055 10 155 0.0 3.2 0.00 0.00 0.84 86 1019.1
20260508211818 10 169 0.0 3.2 0.00 0.00 0.84 86 1019.1
20260508211802 10 167 0.0 3.2 0.00 0.00 0.84 86 1019.0
20260508211523 10 159 0.0 3.2 0.00 0.00 0.84 86 1019.2
20260508211423 10 134 0.0 3.2 0.00 0.00 0.84 86 1018.9
20260508211323 10 134 0.0 3.2 0.00 0.00 0.84 86 1018.9
20260508211223 10 63 0.0 3.2 0.00 0.00 0.84 86 1019.0
20260508211123 10 166 0.0 1.6 0.00 0.00 0.84 86 1019.1
20260508211107 10 166 0.0 1.6 0.00 0.00 0.84 86 1019.1
20260508211059 10 167 0.0 1.6 0.00 0.00 0.84 86 1019.0
20260508211043 10 155 0.0 1.6 0.00 0.00 0.84 86 1019.1
20260508210725 10 176 0.0 1.6 0.00 0.00 0.84 86 1018.9
20260508210623 10 174 0.0 1.6 0.00 0.00 0.84 86 1018.9
20260508210607 10 174 0.0 1.6 0.00 0.00 0.84 86 1018.9
20260508210559 10 175 0.0 1.6 0.00 0.00 0.84 86 1019.2
20260508210543 10 174 0.0 1.6 0.00 0.00 0.84 86 1019.0
20260508210223 10 161 0.0 1.6 0.00 0.00 0.84 86 1019.1
20260508210158 10 173 0.0 1.6 0.00 0.00 0.84 86 1018.9
20260508210142 10 176 0.0 1.6 0.00 0.00 0.84 86 1018.9
20260508210134 10 177 0.0 1.6 0.00 0.00 0.84 86 1018.9
20260508210117 10 175 0.0 1.6 0.00 0.00 0.84 86 1019.2
20260508210046 10 172 0.0 1.6 0.00 0.00 0.84 85 1019.1
20260508205811 10 160 0.0 6.4 0.00 0.00 0.84 85 1019.0
20260508205803 10 155 0.0 6.4 0.00 0.00 0.84 85 1019.0
20260508205748 10 63 1.6 6.4 0.00 0.00 0.84 85 1018.8
20260508205309 10 152 0.0 9.7 0.00 0.00 0.84 86 1018.9
20260508205306 10 172 0.0 9.7 0.00 0.00 0.84 85 1019.0
20260508205256 10 139 0.0 6.4 0.00 0.00 0.84 85 1018.9
20260508205240 10 177 0.0 6.4 0.00 0.00 0.84 86 1019.0
20260508205223 10 176 0.0 6.4 0.00 0.00 0.84 85 1019.0
20260508205215 10 168 0.0 6.4 0.00 0.00 0.84 85 1019.0
20260508204938 10 162 0.0 6.4 0.00 0.00 0.84 85 1018.8
20260508204921 10 87 0.0 6.4 0.00 0.00 0.84 85 1018.9
20260508204906 10 40 4.8 4.8 0.00 0.00 0.84 85 1019.1
20260508204852 10 57 1.6 3.2 0.00 0.00 0.84 85 1019.1
20260508204844 10 177 0.0 1.6 0.00 0.00 0.84 86 1019.0
20260508204347 10 172 0.0 1.6 0.00 0.00 0.84 86 1018.9
20260508204332 10 166 0.0 1.6 0.00 0.00 0.84 86 1018.8
20260508204315 10 159 0.0 1.6 0.00 0.00 0.84 86 1018.8
20260508204047 10 164 0.0 1.6 0.00 0.00 0.84 86 1019.0
20260508204031 10 111 0.0 4.8 0.00 0.00 0.84 86 1018.5
20260508204016 10 182 0.0 4.8 0.00 0.00 0.84 86 1018.9
20260508204000 10 179 0.0 4.8 0.00 0.00 0.84 86 1019.0
20260508203946 10 178 0.0 4.8 0.00 0.00 0.84 86 1019.0
20260508203938 10 177 0.0 9.7 0.00 0.00 0.84 86 1019.0
20260508203703 10 168 0.0 9.7 0.00 0.00 0.84 86 1018.9
20260508203424 10 146 0.0 9.7 0.00 0.00 0.84 86 1019.0
20260508203156 10 163 0.0 9.7 0.00 0.00 0.84 85 1018.8
20260508202932 10 101 0.0 9.7 0.00 0.00 0.84 85 1018.8
20260508202916 10 52 0.0 9.7 0.00 0.00 0.84 85 1018.8
20260508202900 10 110 0.0 9.7 0.00 0.00 0.84 85 1018.8
20260508202844 10 117 0.0 9.7 0.00 0.00 0.84 86 1018.9
20260508202617 10 47 1.6 9.7 0.00 0.00 0.84 86 1018.8
20260508202600 10 55 1.6 9.7 0.00 0.00 0.84 86 1018.7
20260508202336 10 95 0.0 9.7 0.00 0.00 0.84 86 1018.8
20260508202320 10 59 1.6 9.7 0.00 0.00 0.84 86 1018.8
20260508202307 10 151 0.0 9.7 0.00 0.00 0.84 86 1018.9
20260508202023 10 55 1.6 9.7 0.00 0.00 0.84 86 1018.9
20260508201923 10 141 0.0 9.7 0.00 0.00 0.84 86 1018.8
20260508201823 11 38 1.6 4.8 0.00 0.00 0.84 86 1018.5
20260508201723 11 170 0.0 3.2 0.00 0.00 0.84 87 1018.8
20260508201623 11 164 0.0 3.2 0.00 0.00 0.84 87 1018.9
20260508201544 11 163 0.0 3.2 0.00 0.00 0.84 87 1018.9
20260508201523 11 164 0.0 3.2 0.00 0.00 0.84 87 1018.9
20260508201459 11 167 0.0 3.2 0.00 0.00 0.84 86 1018.8
20260508201443 11 168 0.0 3.2 0.00 0.00 0.84 86 1018.9
20260508201125 11 39 3.2 3.2 0.00 0.00 0.84 86 1018.7
20260508201044 11 174 0.0 3.2 0.00 0.00 0.84 86 1018.7
20260508201023 11 172 0.0 3.2 0.00 0.00 0.84 86 1018.7
20260508200924 11 169 0.0 3.2 0.00 0.00 0.84 86 1018.8
20260508200839 11 148 0.0 3.2 0.00 0.00 0.84 86 1018.8
20260508200834 11 172 0.0 3.2 0.00 0.00 0.84 86 1018.9
20260508200818 11 171 0.0 3.2 0.00 0.00 0.84 86 1018.8
20260508200802 11 163 0.0 3.2 0.00 0.00 0.84 86 1018.8
20260508200523 11 106 0.0 3.2 0.00 0.00 0.84 86 1018.8
20260508200424 11 63 1.6 3.2 0.00 0.00 0.84 86 1018.7
20260508200325 11 147 0.0 0.0 0.00 0.00 0.84 86 1018.5
20260508200308 11 183 0.0 0.0 0.00 0.00 0.84 86 1018.7
20260508200253 11 182 0.0 0.0 0.00 0.00 0.84 86 1018.7
20260508200235 11 182 0.0 0.0 0.00 0.00 0.84 86 1018.7
20260508195923 11 183 0.0 0.0 0.00 0.00 0.84 86 1018.4
20260508195824 11 187 0.0 0.0 0.00 0.00 0.84 86 1018.7
20260508195724 11 180 0.0 0.0 0.00 0.00 0.84 86 1018.7
20260508195623 11 176 0.0 0.0 0.00 0.00 0.84 86 1018.5
20260508195523 11 170 0.0 0.0 0.00 0.00 0.84 86 1018.5
20260508195459 11 184 0.0 1.6 0.00 0.00 0.84 86 1018.5
20260508195443 11 183 0.0 1.6 0.00 0.00 0.84 86 1018.5
20260508195123 11 175 0.0 3.2 0.00 0.00 0.84 86 1018.7
20260508195043 11 172 0.0 3.2 0.00 0.00 0.84 86 1018.4
20260508195023 11 161 0.0 3.2 0.00 0.00 0.84 86 1018.7
20260508194923 11 172 0.0 3.2 0.00 0.00 0.84 86 1018.4
20260508194849 11 80 0.0 4.8 0.00 0.00 0.84 85 1018.5
20260508194842 11 158 0.0 3.2 0.00 0.00 0.84 86 1018.5
20260508194827 11 147 0.0 4.8 0.00 0.00 0.84 85 1018.5
20260508194811 11 127 0.0 4.8 0.00 0.00 0.84 85 1018.3
20260508194757 11 83 0.0 4.8 0.00 0.00 0.84 85 1018.3
20260508194749 11 74 0.0 4.8 0.00 0.00 0.84 85 1018.8
20260508194734 11 166 0.0 4.8 0.00 0.00 0.84 85 1018.4
20260508194717 11 162 0.0 4.8 0.00 0.00 0.84 85 1018.1
20260508194701 11 145 0.0 4.8 0.00 0.00 0.84 85 1018.7
20260508194645 11 108 0.0 4.8 0.00 0.00 0.84 85 1018.5
20260508194416 11 66 1.6 4.8 0.00 0.00 0.84 85 1018.3
20260508194141 11 75 0.0 4.8 0.00 0.00 0.84 85 1018.4
20260508193905 11 72 0.0 4.8 0.00 0.00 0.84 85 1018.4
20260508193851 11 76 0.0 4.8 0.00 0.00 0.84 85 1018.4
20260508193843 11 79 0.0 4.8 0.00 0.00 0.84 85 1018.5
20260508193346 11 101 0.0 4.8 0.00 0.00 0.84 85 1018.8
20260508193329 11 150 0.0 4.8 0.00 0.00 0.84 85 1018.5
20260508193313 11 164 0.0 4.8 0.00 0.00 0.84 85 1018.5
20260508193305 11 159 0.0 4.8 0.00 0.00 0.84 85 1018.4
20260508193027 11 50 0.0 4.8 0.00 0.00 0.84 85 1018.4
20260508193009 11 60 0.0 4.8 0.00 0.00 0.84 85 1018.5
20260508192951 11 64 1.6 4.8 0.00 0.00 0.84 85 1018.4
20260508192936 11 159 0.0 3.2 0.00 0.00 0.84 85 1018.4
20260508192927 11 165 0.0 3.2 0.00 0.00 0.84 85 1018.2